[{"header": {"dx": 0.06612293990616946, "dy": 0.0552356325346848, "nx": 98, "ny": 59, "la1": 35.046912555036876, "la2": 31.78801023549047, "lo1": -121.43107172385933, "lo2": -114.95102361305473, "refTime": "2026040904", "parameterCategory": 1, "parameterNumber": 2}, "data": [11.9, 11.9, 11.9, 11.9, 11.9, 11.52, 11.52, 11.52, 11.2, 10.84, 10.65, 9.08, 10.41, 10.0, 9.97, 10.73, 10.73, 10.73, 10.73, 10.28, 9.39, 9.39, 8.94, 8.94, 8.05, 7.08, 6.21, 6.26, 6.26, 6.26, 6.51, 4.11, 2.4, 2.4, 3.79, 5.21, 6.4, 6.4, 6.8, 6.7, 3.8, 4.4, 6.97, 9.17, 10.86, 12.4, 14.37, 14.61, 15.5, 13.58, 11.6, 1.91, 5.0, 6.87, 6.24, 6.98, 7.9, 8.75, 9.67, 9.67, 10.16, 10.16, 10.21, 10.0, 10.68, 10.09, 10.09, 11.03, 10.92, 11.11, 11.66, 11.84, 11.36, 11.02, 10.08, 9.42, 10.41, 11.52, 12.94, 12.52, 10.28, 7.15, 5.81, 5.64, 6.07, 5.51, 7.94, 8.38, 8.38, 8.73, 8.63, 9.42, 10.91, 12.07, 5.6, 2.45, 3.98, 6.64, 11.54, 11.9, 11.9, 11.9, 11.9, 11.9, 11.87, 11.54, 11.2, 10.87, 9.97, 9.84, 10.09, 9.96, 11.28, 10.6, 10.28, 11.62, 10.28, 8.8, 7.27, 9.75, 9.11, 8.94, 6.64, 6.45, 6.45, 6.71, 6.71, 6.71, 6.51, 4.43, 0.0, 0.0, 5.6, 5.95, 7.2, 7.47, 7.89, 8.0, 7.87, 6.97, 8.3, 9.06, 11.22, 13.07, 13.7, 14.08, 13.36, 13.41, 3.68, 5.75, 7.9, 6.87, 6.24, 7.27, 7.9, 8.75, 9.67, 9.67, 10.4, 10.4, 10.21, 10.4, 10.09, 10.09, 10.09, 11.03, 11.34, 11.54, 11.23, 11.66, 11.4, 11.05, 10.56, 9.68, 10.14, 11.52, 12.94, 12.52, 10.28, 7.15, 5.81, 5.64, 6.07, 5.51, 7.94, 8.38, 8.38, 8.73, 8.63, 9.42, 10.91, 12.07, 5.6, 2.45, 3.98, 6.64, 11.54, 11.9, 11.9, 11.9, 11.9, 11.9, 12.26, 11.95, 11.6, 10.58, 8.85, 7.27, 8.93, 9.67, 9.96, 10.52, 11.18, 11.18, 10.0, 7.9, 0.0, 3.39, 6.2, 8.23, 8.3, 6.94, 6.61, 6.71, 6.71, 7.15, 7.37, 0.0, -3.2, 0.0, 4.74, 7.07, 7.47, 8.3, 8.4, 8.03, 8.22, 8.66, 9.81, 11.17, 12.4, 13.76, 14.71, 14.08, 13.41, 5.52, 6.42, 7.27, 7.59, 6.87, 6.24, 7.27, 7.9, 9.3, 9.67, 10.16, 10.4, 10.79, 10.21, 10.4, 9.67, 8.93, 10.24, 10.55, 10.99, 11.14, 11.37, 12.14, 11.98, 11.15, 10.73, 10.28, 10.28, 12.86, 13.86, 13.41, 10.28, 8.05, 7.37, 6.0, 5.2, 6.4, 7.89, 8.33, 8.6, 8.4, 9.9, 10.4, 11.18, 11.28, 2.28, 1.76, 2.97, 4.83, 11.54, 11.54, 11.9, 11.9, 11.9, 11.9, 12.26, 11.95, 10.87, 9.8, 8.02, 7.13, 8.53, 9.3, 10.0, 10.84, 11.28, 11.71, 8.53, 0.0, 0.0, 0.0, 3.53, 5.2, 7.59, 9.13, 7.06, 7.15, 7.15, 7.6, 7.07, 0.0, -4.0, -2.17, 2.83, 6.64, 7.87, 9.58, 8.82, 9.48, 10.19, 10.91, 11.37, 11.32, 11.78, 12.8, 13.89, 11.18, 8.03, 7.56, 7.64, 7.56, 6.58, 6.58, 6.24, 6.98, 7.9, 9.3, 10.16, 10.4, 10.79, 10.79, 11.03, 10.09, 8.93, 9.46, 10.16, 10.2, 10.4, 11.2, 12.87, 14.15, 14.53, 12.49, 10.25, 9.64, 9.54, 12.87, 15.2, 13.37, 8.38, 6.07, 6.64, 5.6, 6.7, 7.44, 8.77, 8.17, 8.3, 9.6, 10.81, 10.16, 10.6, 8.93, 1.84, 1.62, 2.58, 4.0, 11.54, 11.54, 11.9, 11.9, 11.9, 11.9, 12.26, 11.95, 10.87, 9.8, 8.02, 6.59, 7.44, 8.73, 9.2, 9.97, 10.79, 11.71, 10.04, 0.0, 0.0, 0.0, 0.0, 8.22, 7.59, 9.3, 8.8, 9.11, 9.11, 7.89, 6.32, 0.0, -3.19, -1.44, 1.58, 5.0, 5.0, 7.54, 9.91, 10.43, 10.94, 11.04, 10.75, 11.64, 12.46, 12.07, 11.28, 10.46, 10.05, 9.63, 8.55, 7.9, 6.58, 6.58, 6.24, 7.9, 8.49, 9.86, 10.16, 10.79, 11.21, 11.13, 10.0, 8.59, 8.49, 10.16, 10.62, 10.16, 9.97, 10.8, 12.87, 14.84, 15.47, 14.97, 12.52, 8.17, 7.81, 10.68, 13.53, 12.41, 6.23, 4.46, 6.23, 5.72, 4.22, 5.1, 7.67, 7.67, 9.9, 10.73, 10.41, 9.6, 10.73, 4.0, -0.0, 2.28, 3.52, 4.96, 11.54, 11.54, 11.54, 11.9, 11.9, 11.9, 12.26, 11.26, 10.92, 9.8, 7.41, 6.17, 7.9, 9.2, 8.94, 8.94, 10.4, 9.66, 8.53, 3.44, 0.0, 0.0, 0.0, 0.0, 8.53, 8.53, 6.97, 6.98, 7.59, 7.59, 6.64, 1.84, 0.0, 0.0, 2.2, 3.25, 4.43, 8.15, 11.16, 10.41, 8.28, 8.94, 10.73, 12.52, 12.52, 12.47, 12.02, 11.62, 11.55, 10.75, 9.58, 8.38, 7.59, 6.87, 7.15, 9.46, 9.46, 10.4, 10.62, 11.21, 11.21, 10.6, 9.7, 9.09, 10.0, 10.38, 10.21, 9.6, 10.0, 10.17, 12.04, 13.29, 14.92, 15.41, 15.08, 13.86, 7.28, 6.06, 7.89, 9.35, 4.84, 3.2, 5.59, 5.37, 4.14, 3.8, 5.94, 9.27, 11.64, 9.97, 7.9, 11.2, 4.2, -0.0, -0.0, 2.28, 4.44, 5.46, 11.9, 11.54, 11.54, 11.9, 11.9, 11.9, 11.6, 11.26, 10.58, 9.8, 7.95, 5.9, 8.38, 9.2, 10.35, 8.94, 9.66, 9.62, 8.15, 6.63, 4.1, 1.42, 0.0, 0.0, 4.18, 5.81, 5.34, 5.02, 5.11, 2.95, 2.6, 0.0, 0.0, 1.39, 3.06, 3.65, 4.52, 7.34, 9.02, 8.73, 7.36, 4.81, 6.9, 9.48, 12.51, 11.38, 11.87, 11.44, 11.62, 12.07, 11.4, 8.58, 6.98, 6.98, 8.22, 9.67, 10.09, 10.68, 11.03, 11.88, 11.4, 10.84, 10.27, 9.86, 10.05, 10.18, 10.18, 10.32, 10.32, 10.56, 10.62, 11.52, 12.79, 15.01, 16.37, 15.57, 13.81, 6.79, 4.65, 9.54, 6.08, 3.8, 4.98, 6.4, 6.24, 6.24, 7.24, 9.48, 10.22, 8.54, 6.21, 8.53, -0.0, -0.0, 0.89, 3.14, 4.44, 6.64, 11.53, 11.9, 11.54, 11.54, 11.9, 11.9, 11.6, 11.33, 10.12, 8.91, 6.2, 4.4, 5.29, 8.94, 10.41, 8.73, 9.42, 9.84, 9.17, 9.48, 12.45, 12.72, 9.48, 4.5, 3.42, 4.81, 4.95, 3.9, 0.0, 0.0, 0.0, 0.0, 0.0, 2.06, 4.62, 4.81, 4.65, 4.62, 6.76, 7.44, 6.43, 4.87, 5.98, 7.03, 8.93, 9.31, 8.69, 9.77, 11.35, 12.07, 10.73, 7.9, 7.26, 8.22, 8.22, 9.67, 10.09, 10.68, 11.03, 11.4, 11.4, 10.66, 10.62, 10.62, 10.18, 10.32, 10.47, 10.2, 10.28, 10.73, 10.73, 11.18, 12.5, 14.29, 15.18, 15.2, 12.94, 12.0, 12.52, 13.96, 14.84, 6.7, 4.71, 5.76, 6.7, 7.38, 8.09, 8.76, 8.67, 7.24, 8.94, 1.23, -0.0, -0.0, 1.84, 3.8, 5.2, 6.32, 11.53, 11.9, 11.9, 11.54, 11.9, 11.9, 11.6, 11.33, 10.12, 8.1, 6.24, 4.47, 5.11, 5.8, 6.94, 7.28, 8.44, 8.83, 8.59, 9.48, 12.72, 13.41, 13.77, 12.42, 6.87, 4.4, 2.7, 0.0, -2.57, 0.0, 0.0, 0.0, 0.0, 1.25, 3.68, 4.81, 3.92, 3.53, 5.45, 5.45, 6.43, 6.6, 5.81, 4.65, 2.82, 0.0, 2.93, 7.9, 10.28, 8.93, 6.45, 4.8, 5.98, 8.22, 8.22, 8.93, 10.09, 10.6, 11.13, 11.4, 11.12, 10.73, 10.28, 10.08, 9.55, 9.89, 10.47, 10.66, 10.73, 10.73, 11.14, 11.15, 13.77, 14.6, 14.15, 13.32, 11.62, 10.7, 12.96, 15.2, 16.5, 10.77, 4.78, 4.28, 5.7, 7.09, 7.8, 7.82, 7.22, 6.95, 5.81, 1.6, -0.0, -0.0, 2.06, 4.94, 5.72, 6.32, 11.53, 11.53, 11.9, 11.9, 11.9, 11.9, 11.6, 11.33, 10.12, 8.67, 6.94, 6.43, 5.92, 5.2, 5.46, 5.62, 6.78, 6.6, 5.48, 4.24, 4.55, 6.87, 10.52, 10.86, 8.31, 5.77, 2.69, 0.0, -1.83, 0.0, 1.34, 1.37, 0.0, 0.0, 0.0, 1.23, 4.66, 4.83, 5.21, 5.36, 7.59, 9.17, 10.6, 6.64, -0.0, -0.0, -3.8, -3.25, -3.53, -1.93, -0.0, 4.6, 6.7, 7.9, 8.93, 9.46, 10.4, 11.03, 11.4, 11.57, 11.18, 10.2, 10.08, 7.6, 7.51, 9.55, 10.84, 10.96, 11.62, 11.53, 11.88, 11.45, 14.03, 14.49, 14.15, 12.89, 11.4, 11.06, 11.53, 13.84, 16.07, 16.43, 8.59, 4.03, 4.14, 5.86, 6.92, 6.92, 6.92, 6.98, 5.36, 2.98, -0.0, -0.0, 3.8, 5.72, 5.72, 6.32, 11.53, 11.53, 11.9, 12.27, 11.9, 11.9, 11.69, 10.92, 10.12, 9.02, 7.9, 8.2, 8.31, 7.23, 6.4, 5.73, 6.66, 6.02, 5.3, 4.83, 4.79, 5.76, 6.59, 6.6, 7.06, 5.27, 3.61, 1.28, 1.29, 1.25, 2.32, 1.17, 0.0, -2.71, -1.39, 0.0, 4.32, 4.98, 2.66, 7.15, 3.2, 4.4, 4.6, -0.0, -0.0, -0.0, -0.0, -0.0, -2.06, -1.75, -0.0, 5.21, 6.95, 8.82, 8.93, 10.0, 11.13, 12.02, 12.07, 11.62, 11.18, 9.13, 6.7, 6.64, 5.06, 7.59, 9.7, 11.3, 12.07, 11.45, 11.39, 11.38, 13.64, 13.88, 13.59, 13.7, 12.66, 10.52, 10.43, 11.87, 14.13, 15.65, 15.2, 9.17, 6.32, 5.43, 6.39, 6.01, 7.31, 8.06, 5.77, 5.06, 1.32, 1.32, 4.14, 6.01, 6.01, 6.01, 11.53, 11.53, 11.9, 12.27, 12.27, 11.9, 11.69, 10.92, 10.12, 9.02, 8.66, 8.66, 9.3, 9.42, 9.15, 7.6, 7.22, 7.32, 6.71, 5.9, 5.94, 5.78, 5.3, 5.3, 5.45, 5.8, 5.6, 2.96, 2.4, 1.1, 1.4, 3.72, 4.74, 3.76, 9.6, 1.69, 1.45, 0.0, -7.6, -0.0, -0.0, -0.0, 9.39, 9.39, 8.94, -0.0, -0.0, -0.0, -0.0, -0.0, 8.49, 8.94, 8.94, 8.94, 9.26, 8.67, 10.23, 12.02, 12.52, 10.28, 8.24, 4.71, 3.49, 1.93, 1.69, 5.32, 8.22, 9.66, 10.84, 10.2, 9.55, 9.74, 10.88, 11.45, 11.45, 12.37, 12.37, 10.95, 9.74, 11.2, 12.66, 12.07, 12.27, 14.55, 9.96, 8.63, 7.82, 8.05, 8.0, 8.91, 7.48, 6.52, 3.2, 3.0, 5.06, 5.93, 5.93, 4.75, 11.53, 11.53, 11.9, 12.27, 12.27, 12.27, 11.69, 10.58, 10.58, 9.8, 9.8, 9.73, 10.07, 10.01, 11.06, 11.09, 10.81, 9.13, 7.78, 7.16, 7.31, 7.57, 6.72, 8.38, 9.82, 9.6, 9.66, 8.48, 8.48, 6.47, 6.64, 6.26, 5.94, 5.51, 6.07, -0.0, -6.0, -5.37, -3.4, -0.0, -5.37, -6.4, -4.2, 0.0, 3.8, 0.0, 0.0, -2.06, 0.0, 0.0, 0.0, 0.0, 3.15, 4.29, 7.44, 8.72, 7.89, 10.28, 11.62, 6.71, -0.0, -0.0, -0.0, -0.0, -0.0, 3.39, 5.77, 7.02, 7.9, 9.67, 9.86, 9.83, 8.67, 7.76, 8.55, 10.68, 10.85, 9.96, 10.27, 10.41, 9.39, 9.39, 11.18, 13.41, 12.52, 12.52, 10.47, 9.49, 9.7, 8.49, 8.24, 6.7, 6.08, 4.74, 5.36, 5.75, 5.59, 4.47, 11.53, 11.53, 11.53, 11.9, 12.27, 11.64, 11.34, 10.58, 10.58, 10.54, 10.51, 10.48, 10.07, 10.4, 11.38, 11.72, 12.42, 11.95, 10.87, 9.7, 10.12, 11.1, 11.45, 13.58, 15.25, 15.61, 14.28, 14.3, 13.41, 12.52, 11.18, 9.8, 8.05, 6.17, 6.26, -2.8, -1.98, -0.0, -0.0, 7.6, 7.6, -3.97, -2.02, 0.0, 3.11, 1.39, 0.0, 0.0, 0.0, 0.0, 0.0, 0.0, 3.25, 4.38, 4.39, 4.32, 4.2, 7.81, 10.73, 7.6, -6.95, -2.49, -0.0, -0.0, -0.0, -0.0, -0.0, 2.02, 5.52, 6.95, 7.06, 6.44, 10.73, 6.95, 8.18, 9.77, 10.32, 8.94, 9.39, 9.83, 9.83, 9.39, 11.62, 13.41, 12.39, 13.41, 12.96, 10.73, 8.94, 7.48, 9.15, 7.33, 6.79, 6.4, 5.36, 5.75, 5.24, 4.74, 11.53, 11.53, 11.53, 11.9, 11.9, 11.64, 11.34, 10.58, 10.58, 10.54, 10.51, 10.81, 10.78, 10.75, 11.38, 12.04, 12.4, 12.84, 12.65, 11.94, 11.87, 12.76, 13.35, 14.54, 15.35, 16.22, 15.91, 15.58, 15.13, 14.74, 13.81, 12.39, 10.96, 6.79, 7.15, -0.0, -0.0, 1.84, 3.8, 7.15, 7.6, 0.0, 0.0, 1.76, 1.26, 2.46, 1.26, 0.0, 0.0, -1.22, 0.0, 1.14, 3.11, 2.54, 1.4, 0.0, 0.0, 2.69, 5.69, 8.94, -7.44, -5.21, -2.83, -0.0, -0.0, -0.0, -0.0, 6.95, 8.8, 6.64, 2.99, -2.49, -10.4, 0.0, 7.27, 9.83, 9.2, 8.82, 9.2, 9.89, 9.7, 9.83, 9.29, 10.65, 9.75, 12.52, 13.41, 11.12, 9.24, 8.36, 9.54, 8.38, 7.08, 6.08, 5.06, 5.59, 5.24, 5.24, 11.53, 11.53, 11.53, 11.9, 11.9, 11.64, 11.34, 10.99, 10.12, 10.54, 11.2, 11.52, 11.15, 11.09, 11.06, 11.72, 12.04, 12.74, 13.18, 12.92, 12.57, 13.15, 13.73, 14.79, 15.2, 15.76, 16.16, 15.85, 15.51, 15.08, 15.08, 14.64, 12.31, 10.96, 6.94, 6.4, 1.84, 3.4, 4.46, 8.05, 6.4, 5.95, 7.2, 2.54, 0.0, 1.58, 2.06, 2.54, 0.0, 0.0, 0.0, 1.25, 1.58, 0.0, 7.6, 0.0, 1.49, 3.8, 4.0, 9.39, -0.0, -0.0, -0.0, 8.05, 7.6, 8.05, 0.0, 0.0, 4.4, 2.28, -2.4, -9.54, -11.87, -8.22, 10.0, 6.71, 7.85, 9.08, 9.67, 9.1, 8.72, 9.04, 8.85, 8.49, 7.89, 6.44, 9.89, 9.83, 8.49, 8.01, 9.36, 6.94, 6.52, 5.37, 6.11, 5.58, 4.89, 4.89, 11.53, 11.53, 11.9, 11.53, 11.53, 11.64, 11.34, 11.33, 10.54, 10.92, 11.2, 11.52, 11.8, 11.44, 11.41, 11.73, 11.73, 12.4, 12.74, 13.49, 13.51, 13.15, 13.73, 14.54, 15.27, 15.53, 15.75, 15.89, 15.91, 15.99, 15.99, 15.99, 15.01, 13.25, 6.88, 6.71, 5.95, 6.94, 7.15, 7.6, 5.06, 3.72, 6.01, 3.6, 0.0, 0.0, 8.94, 8.49, 8.49, 8.49, 8.94, 8.94, 8.94, 4.0, 4.0, 8.94, 8.48, 9.39, 8.4, 3.25, 3.25, 4.2, 6.01, 8.05, 8.05, 6.0, 0.0, 0.0, 8.94, -0.0, -8.49, -10.84, -12.96, 8.22, 8.22, 6.7, 7.68, 9.17, 9.69, 8.69, 7.59, 7.4, 7.58, 7.4, 8.33, 7.81, 6.01, 8.06, 8.43, 8.49, 8.91, 7.63, 5.93, 6.28, 7.44, 5.82, 5.21, 5.21, 11.53, 11.53, 11.9, 11.9, 11.53, 11.28, 11.34, 10.99, 10.87, 11.26, 11.2, 11.87, 12.16, 11.8, 11.44, 11.73, 11.73, 12.07, 12.4, 13.14, 13.73, 13.73, 13.49, 14.17, 15.18, 15.85, 16.33, 16.35, 16.36, 16.72, 17.16, 17.16, 16.72, 14.93, 11.56, 7.71, 5.75, 5.01, 5.36, 5.72, 4.56, 3.6, 1.95, 0.0, 0.0, 9.39, -0.0, -0.0, -0.0, -0.0, -0.0, 2.97, 2.97, 6.64, 6.32, 7.81, 7.81, 6.64, 5.9, 6.95, 8.18, 7.81, 8.0, 8.49, 8.49, 7.15, 4.43, 3.4, 3.11, 9.3, 8.53, 9.67, 12.07, 12.35, 11.62, 7.51, 8.3, 10.12, 10.79, 9.42, 8.94, 8.72, 8.0, 9.29, 9.39, 8.24, 5.36, 6.01, 7.28, 8.82, 9.32, 7.6, 6.6, 8.0, 8.0, 6.32, 5.46, 5.46, 11.53, 11.53, 11.53, 11.9, 11.53, 11.28, 11.34, 11.34, 10.87, 11.26, 11.2, 11.87, 12.52, 12.52, 11.8, 13.05, 10.76, 11.41, 11.82, 12.52, 13.85, 13.93, 13.49, 14.79, 13.59, 15.27, 13.02, 15.94, 16.36, 14.9, 16.29, 16.76, 16.76, 16.48, 14.95, 11.62, 8.0, 6.34, 6.53, 4.71, 3.2, 1.25, 0.0, -5.69, -8.49, -8.94, -0.0, -0.0, -0.0, -0.0, -0.0, 2.97, 2.97, 2.83, 4.0, 5.63, 6.64, 7.51, 7.87, 8.8, 9.33, 8.91, 8.94, 7.6, 8.05, 3.4, 7.15, 6.4, 7.15, 9.96, 11.02, 12.07, 13.74, 14.06, 13.23, 12.96, 12.52, 12.52, 12.47, 11.88, 9.77, 9.77, 9.83, 9.77, 9.83, 9.26, 9.55, 10.38, 7.59, 8.8, 8.77, 8.22, 8.06, 8.6, 7.6, 6.8, 6.8, 6.8, 11.28, 11.53, 11.53, 11.53, 11.53, 11.28, 11.64, 11.34, 11.26, 11.26, 11.2, 11.87, 12.52, 12.52, 12.14, 11.8, 11.1, 10.07, 10.47, 11.3, 13.82, 13.18, 12.7, 12.85, 11.7, 12.56, 13.23, 12.93, 14.03, 14.82, 15.19, 15.93, 16.15, 16.35, 15.93, 14.03, 11.22, 9.02, 7.23, 5.32, 4.95, 2.69, 0.0, -6.71, -5.36, -5.69, -0.0, -0.0, -0.0, -0.0, -0.0, 2.83, -0.0, -0.0, 1.58, 3.15, 6.14, 6.79, 8.67, 9.83, 9.39, 8.94, 8.49, 8.49, -0.0, -3.97, -3.97, -0.0, 7.2, 8.3, 9.75, 11.68, 16.37, 18.59, 15.2, 13.67, 9.48, 8.32, 11.21, 11.12, 10.23, 9.83, 8.9, 9.33, 8.85, 8.49, 8.49, 7.89, 11.18, 8.94, 8.94, 8.94, 9.77, 8.85, 8.82, 8.48, 7.63, 7.63, 11.28, 11.53, 11.53, 11.53, 11.53, 11.28, 11.28, 11.34, 11.26, 11.6, 11.6, 11.87, 12.52, 12.78, 12.43, 12.43, 11.45, 10.04, 7.67, 9.73, 12.01, 12.01, 11.7, 11.38, 11.68, 12.01, 11.67, 12.27, 13.73, 14.59, 15.06, 15.1, 15.35, 15.59, 15.52, 15.23, 12.95, 10.51, 9.3, 7.9, 7.73, 8.79, 9.7, 8.94, 7.15, -0.0, -0.0, -0.0, -0.0, 6.32, -0.0, -0.0, -0.0, -0.0, 2.06, 2.99, 4.71, 5.44, 8.18, 8.94, 8.94, 8.49, 8.49, 8.49, -4.22, -5.06, -5.06, -3.4, -0.0, 3.52, 6.45, 10.73, 15.18, 16.45, 15.55, 12.62, 7.03, 6.65, 7.36, 8.94, 9.75, 9.79, 9.39, 8.46, 8.87, 8.38, 8.3, 7.07, 7.76, 8.41, 8.82, 9.46, 10.22, 8.49, 8.49, 8.38, 7.94, 7.94, 11.28, 11.53, 11.53, 11.53, 11.53, 11.53, 11.28, 11.34, 11.26, 11.6, 11.95, 11.87, 12.16, 12.78, 12.78, 12.43, 11.8, 10.81, 9.66, 10.94, 11.68, 11.06, 10.42, 10.77, 11.7, 13.26, 13.24, 12.56, 12.8, 13.38, 14.23, 14.51, 14.95, 15.21, 15.19, 15.19, 13.76, 11.62, 9.94, 8.84, 8.0, 8.55, 8.71, 8.39, 7.12, 5.7, 7.6, 6.01, 6.01, 5.69, -0.0, -0.0, -0.0, -0.0, -0.0, 1.58, 1.95, 2.83, 4.83, 8.0, 7.2, 8.49, 8.49, -0.0, -4.46, -3.4, -4.56, -4.56, -2.82, -0.0, 2.02, 8.01, 11.69, 15.71, 5.82, 7.26, 7.4, 6.89, 5.11, 5.51, 7.27, 8.91, 9.39, 9.21, 9.21, 8.67, 8.48, 8.91, 8.89, 9.36, 11.12, 9.45, 10.18, 8.49, 8.49, 7.45, 7.5, 7.5, 11.28, 11.28, 11.28, 11.53, 11.53, 11.53, 11.64, 11.64, 11.69, 11.95, 11.95, 11.87, 12.52, 12.78, 12.78, 12.78, 12.42, 11.15, 11.11, 12.04, 12.66, 11.38, 10.44, 10.13, 11.7, 12.93, 13.84, 13.8, 13.74, 13.21, 13.58, 13.76, 14.03, 14.18, 14.43, 14.67, 14.39, 12.32, 10.15, 8.38, 7.9, 8.0, 8.48, 8.33, 6.68, 5.75, 7.81, 8.05, 7.6, -0.0, -0.0, -0.0, -0.0, -0.0, -0.0, -0.0, -0.0, -0.0, 4.6, 5.93, 7.2, 8.49, 8.49, -2.69, -2.99, -2.82, -1.63, -3.72, -4.83, -4.0, -4.4, 4.6, 13.44, 8.49, 0.0, 0.0, 3.47, 5.65, 5.21, 4.13, 3.95, 6.32, 8.22, 9.32, 9.39, 9.32, 9.29, 9.39, 10.22, 11.57, 12.31, 11.06, 10.28, 8.05, 8.49, 7.45, 7.06, 7.06, 11.28, 11.28, 11.28, 11.28, 11.53, 11.53, 11.28, 11.64, 12.0, 11.95, 11.95, 12.62, 12.52, 12.78, 12.78, 12.78, 12.78, 11.45, 11.77, 12.07, 12.98, 12.99, 11.72, 10.43, 10.75, 12.56, 13.49, 14.02, 14.31, 14.23, 13.75, 13.75, 13.9, 14.15, 14.15, 14.51, 14.22, 13.31, 10.83, 8.55, 6.98, 7.08, 8.0, 8.21, 6.68, 5.36, 8.49, 8.49, 7.6, 3.4, -0.0, -0.0, -0.0, -0.0, -0.0, -0.0, -1.32, -1.4, 1.67, 6.44, 6.36, 7.15, 7.15, -2.26, -2.49, -1.84, -0.0, -0.0, -2.17, -3.8, -8.05, 9.96, 11.51, 11.62, 11.03, 10.28, 0.0, 1.77, 5.81, 4.81, 3.44, 4.07, 5.53, 6.79, 8.0, 8.22, 9.03, 8.79, 8.79, 9.29, 9.39, 8.41, 8.17, 7.21, 7.5, 7.5, 7.08, 7.08, 11.28, 11.28, 11.28, 11.28, 11.53, 11.53, 11.28, 11.64, 12.0, 11.95, 12.26, 12.26, 12.52, 12.52, 12.78, 12.78, 12.78, 12.16, 11.8, 12.7, 12.63, 13.33, 13.05, 12.04, 11.37, 11.92, 13.44, 14.02, 14.31, 14.4, 14.67, 14.54, 13.76, 13.99, 13.99, 14.22, 14.03, 13.53, 11.6, 8.96, 7.23, 6.8, 7.51, 7.74, 6.68, 5.81, 6.22, 6.26, 6.14, 5.01, 2.6, 1.84, 2.26, -0.0, -0.0, -0.0, -0.0, -1.98, -0.0, 7.63, 7.89, 6.61, 6.0, -2.8, -1.84, -1.32, -1.75, -0.0, -0.0, -0.0, 6.01, 8.18, 12.44, 12.83, 13.15, 13.15, 12.45, 10.96, 4.0, 4.12, 4.51, 4.49, 5.0, 5.9, 5.69, 6.18, 6.91, 7.76, 7.67, 8.94, 6.98, 7.07, 6.9, 6.8, 6.88, 7.06, 7.06, 7.06, 11.28, 11.28, 11.28, 11.28, 11.28, 11.53, 11.53, 11.64, 12.0, 11.6, 12.26, 12.26, 12.89, 12.52, 12.78, 12.78, 12.78, 12.52, 12.14, 12.68, 12.6, 12.96, 13.05, 12.37, 12.36, 12.26, 12.73, 13.66, 14.02, 14.51, 14.4, 14.67, 14.54, 14.79, 14.22, 14.44, 14.11, 14.23, 12.41, 10.0, 8.28, 7.08, 7.31, 7.26, 7.06, 6.71, 6.71, 7.12, 6.55, 5.75, 4.11, 2.66, 1.63, 2.26, 2.4, -0.0, -0.0, -0.0, 7.15, 8.05, 8.49, 8.82, 7.37, -0.0, -1.63, -2.17, -1.84, -1.54, -0.0, 2.54, 7.63, 8.8, 9.79, 11.96, 12.98, 12.51, 13.35, 12.82, 6.28, 2.57, 3.81, 5.31, 6.0, 4.8, 4.03, 5.03, 6.52, 7.07, 8.3, 8.49, 8.3, 7.07, 7.73, 7.14, 6.79, 6.88, 6.88, 6.88, 11.28, 11.28, 11.28, 11.28, 11.28, 11.53, 11.53, 11.28, 11.64, 12.0, 12.26, 12.26, 12.89, 12.16, 12.78, 12.78, 12.78, 12.52, 12.43, 12.68, 12.91, 12.6, 12.36, 12.71, 12.36, 12.92, 12.51, 13.09, 13.66, 14.13, 14.13, 14.4, 14.67, 14.67, 14.91, 15.14, 15.14, 14.94, 14.11, 12.83, 11.41, 9.48, 8.0, 7.69, 7.57, 7.6, 7.51, 7.95, 7.06, 6.36, 4.73, 3.12, 2.2, 1.83, -0.0, 3.2, 5.37, -0.0, -0.0, 6.71, 7.6, 8.05, 9.39, 5.95, -0.0, -0.0, -0.0, -0.0, -0.0, 7.6, 8.49, 8.0, 9.04, 10.28, 10.6, 9.9, 11.81, 10.8, 8.94, 0.94, 1.76, 4.52, 5.31, 4.13, 2.99, 3.47, 5.24, 6.63, 7.6, 8.49, 8.49, 8.49, 7.71, 8.14, 7.28, 7.12, 6.88, 6.88, 11.28, 11.28, 11.28, 11.28, 11.28, 11.28, 11.53, 11.28, 11.64, 11.9, 11.9, 12.26, 12.52, 12.52, 12.42, 12.42, 12.78, 12.78, 12.43, 12.68, 12.91, 12.91, 12.35, 12.02, 12.36, 12.57, 12.51, 12.73, 13.09, 13.58, 13.58, 13.76, 14.03, 14.29, 14.67, 14.91, 15.02, 15.23, 14.94, 13.62, 12.33, 10.4, 8.51, 8.28, 8.49, 8.42, 9.24, 8.87, 7.97, 6.9, 5.09, 2.98, 1.55, 0.96, -0.0, -0.0, -0.0, -0.0, -0.0, -6.71, 3.2, 7.47, 7.94, 6.8, -0.0, -0.0, -0.0, -0.0, 8.94, 8.94, 8.94, 9.21, 8.4, 8.05, 9.7, 10.28, 11.18, 10.18, 8.77, 1.49, 0.8, 3.85, 5.64, 4.87, 2.76, 3.61, 3.4, 4.14, 6.01, 7.89, 7.94, 8.49, 8.01, 7.92, 7.76, 7.71, 7.21, 7.21, 11.28, 11.28, 11.28, 11.28, 11.28, 11.28, 11.28, 11.64, 11.64, 11.64, 11.9, 12.26, 12.89, 12.89, 12.78, 12.42, 12.42, 12.42, 12.42, 12.32, 12.91, 12.91, 12.6, 12.35, 12.02, 12.28, 12.45, 12.73, 13.38, 13.58, 13.58, 13.85, 14.03, 14.29, 14.29, 14.67, 14.91, 15.02, 14.73, 14.03, 13.02, 10.91, 8.51, 8.48, 8.49, 8.33, 10.22, 11.18, 9.37, 6.6, 4.84, 2.76, -0.0, -0.0, -0.0, -0.0, -0.0, -0.0, -2.8, -6.71, 3.2, 6.9, 7.06, 6.01, -0.0, -0.0, 1.54, 4.0, 8.49, 0.0, 8.48, 9.26, 9.11, 7.64, 6.15, 7.48, 8.82, 9.6, 9.39, 6.32, 0.95, 2.37, 5.25, 5.93, 3.61, 2.82, 0.89, 0.0, 4.83, 6.52, 7.94, 7.6, 7.6, 7.45, 7.33, 7.76, 7.71, 7.71, 11.28, 11.28, 11.28, 11.28, 11.28, 11.28, 11.28, 11.9, 11.9, 11.9, 11.9, 12.26, 12.52, 12.89, 13.51, 12.78, 12.42, 12.42, 12.42, 12.32, 12.91, 12.91, 12.91, 12.35, 12.35, 12.6, 12.16, 12.45, 13.01, 13.01, 13.48, 13.48, 13.48, 13.75, 13.9, 14.15, 14.67, 14.91, 14.73, 14.32, 13.53, 11.41, 8.8, 7.33, 7.11, 8.49, 11.96, 11.74, 7.74, 4.92, 4.4, 2.2, -0.0, -1.19, -1.55, -2.2, -2.0, -2.48, -2.8, -6.26, 4.74, 6.8, 7.6, -0.0, -2.06, -1.67, -0.0, 4.4, 6.08, 7.6, 4.46, 7.47, 8.94, 10.56, 10.12, 9.8, 8.53, 8.75, 10.0, 10.14, 5.9, 1.71, 3.73, 5.55, 5.48, 3.8, 3.8, 4.46, 5.36, 6.64, 7.37, 8.05, 8.49, 7.98, 8.33, 8.36, 8.36, 8.36, 10.91, 10.91, 11.28, 11.28, 11.28, 11.28, 11.28, 11.9, 11.9, 12.27, 12.27, 11.9, 12.52, 12.52, 13.14, 13.14, 12.78, 12.78, 12.78, 13.02, 12.91, 12.91, 12.91, 12.91, 12.35, 12.6, 12.45, 12.27, 12.82, 12.93, 13.48, 13.11, 13.36, 13.36, 13.62, 14.15, 14.67, 14.91, 14.51, 14.22, 13.53, 11.92, 9.2, 7.73, 7.21, 8.17, 11.75, 11.12, 5.09, 3.82, 3.82, 3.9, 3.72, -0.0, -1.19, -1.55, -1.7, -2.98, -2.98, -4.11, 6.71, 7.6, 6.01, -0.0, -0.0, -4.46, -5.37, -0.0, 7.2, 7.15, 5.6, 5.95, 8.94, 10.58, 13.41, 13.77, 12.0, 9.4, 9.48, 11.13, 10.6, 5.95, 3.07, 4.51, 6.42, 8.22, 11.56, 10.2, 8.44, 6.71, 7.6, 7.6, 7.6, 7.6, 8.9, 8.9, 8.9, 8.9, 10.91, 10.91, 10.91, 11.28, 11.28, 11.28, 11.28, 11.64, 11.9, 12.27, 12.27, 12.27, 11.9, 12.89, 13.14, 13.14, 13.14, 13.15, 13.15, 13.39, 13.61, 13.28, 13.12, 12.91, 12.68, 12.35, 12.24, 11.81, 13.39, 12.54, 13.2, 13.48, 13.75, 13.36, 13.36, 14.15, 14.15, 14.28, 14.51, 13.99, 13.31, 11.7, 9.71, 8.12, 8.25, 8.68, 10.5, 9.43, 6.26, 5.59, 5.2, 4.88, 4.92, 4.82, 4.66, -0.0, -0.0, -0.0, -1.7, -1.84, -0.0, 3.4, 7.6, 8.05, -0.0, -3.6, -6.8, 8.05, 8.05, 8.49, 7.6, 8.49, 10.28, 11.18, 13.77, 15.12, 12.6, 8.82, 7.56, 9.36, 10.96, 11.93, 11.61, 10.79, 12.18, 13.11, 13.83, 13.86, 11.18, 8.94, 8.05, 8.24, 7.06, 7.06, 8.49, 8.94, 8.49, 8.49, 10.91, 10.91, 10.91, 11.28, 11.28, 11.28, 11.28, 11.64, 11.9, 12.27, 12.27, 12.27, 12.16, 12.16, 13.14, 13.14, 13.14, 13.14, 12.78, 13.39, 13.39, 13.61, 13.49, 12.91, 12.54, 12.32, 12.54, 11.81, 11.23, 12.62, 12.0, 12.93, 13.48, 13.48, 13.75, 13.75, 13.9, 14.15, 14.15, 13.99, 13.31, 11.6, 9.6, 8.4, 8.63, 9.21, 9.91, 9.32, 9.39, 8.91, 8.05, 7.15, 6.26, 5.81, 5.36, 4.47, 4.34, 1.55, -0.0, -0.0, -0.0, 3.2, 7.6, 6.8, -0.0, -0.0, -5.37, -7.6, 6.01, 8.77, 8.94, 6.64, 8.94, 8.82, 13.75, 16.52, 12.79, 8.93, 9.2, 11.53, 12.07, 12.94, 13.38, 13.41, 13.41, 14.29, 14.74, 14.3, 12.07, 8.94, 8.49, 8.67, 7.6, 6.64, 6.51, 8.49, 8.05, 8.05, 10.63, 10.63, 10.91, 10.91, 11.28, 11.28, 11.28, 11.64, 11.9, 12.27, 12.27, 12.65, 12.51, 12.16, 12.76, 13.14, 13.14, 13.14, 13.14, 13.15, 13.39, 13.98, 13.49, 13.49, 12.54, 12.32, 12.32, 12.17, 11.88, 12.09, 12.27, 12.37, 12.45, 12.93, 13.48, 13.48, 13.75, 13.9, 14.15, 13.48, 12.56, 11.08, 9.2, 8.8, 9.04, 9.39, 9.57, 9.76, 9.81, 9.81, 9.81, 9.37, 8.47, 7.07, 6.16, 5.33, 4.47, 4.02, 2.48, 2.23, -0.0, 3.4, 3.4, 5.69, -0.0, -0.0, -7.6, -7.15, 0.0, 8.0, 8.24, 8.18, 9.83, 8.72, 12.7, 15.91, 14.73, 12.85, 11.87, 12.92, 13.86, 14.3, 14.3, 13.86, 13.86, 13.85, 14.29, 14.3, 12.07, 8.94, 7.15, 9.21, 8.0, 5.93, 6.21, 7.92, 8.01, 8.01, 10.63, 10.63, 10.91, 10.91, 11.28, 11.28, 11.28, 11.64, 12.27, 12.27, 12.65, 12.65, 12.89, 12.16, 12.16, 12.76, 12.76, 12.76, 12.76, 13.14, 13.39, 13.61, 13.8, 13.8, 12.91, 12.54, 12.32, 12.17, 12.17, 12.74, 12.92, 12.65, 12.37, 12.37, 12.93, 12.93, 13.48, 13.75, 13.62, 13.23, 12.67, 10.68, 9.07, 9.45, 9.26, 9.54, 9.97, 10.11, 10.11, 10.08, 10.11, 10.11, 9.23, 8.33, 7.87, 6.94, 5.7, 4.92, 4.43, 3.58, 2.0, 2.4, 3.4, 5.37, -0.0, 8.05, -7.15, -5.37, -3.6, 0.0, 8.05, 9.83, 10.28, 11.05, 13.44, 13.76, 14.55, 14.05, 14.42, 14.55, 14.3, 14.13, 13.23, 12.77, 12.94, 13.84, 14.75, 12.96, 10.73, 8.49, 7.6, 7.6, 8.91, 7.2, 5.95, 6.6, 8.14, 8.14, 10.63, 10.63, 10.91, 10.91, 11.28, 11.28, 11.64, 11.64, 12.27, 12.27, 12.65, 12.65, 12.89, 12.51, 12.16, 12.76, 12.76, 12.76, 12.76, 13.14, 13.02, 13.61, 13.8, 13.8, 13.23, 12.54, 12.32, 12.17, 12.17, 12.74, 12.92, 12.92, 12.27, 12.27, 12.27, 12.56, 13.2, 13.36, 13.23, 12.95, 11.88, 10.4, 9.32, 9.68, 9.89, 9.93, 10.11, 10.11, 9.97, 9.97, 9.97, 10.01, 9.57, 9.11, 8.21, 7.26, 6.47, 5.34, 4.47, 3.83, 3.48, 2.95, 3.6, 5.06, 5.37, 6.01, 7.6, -8.49, -7.6, -6.01, 0.0, 8.05, 10.52, 11.49, 12.52, 12.52, 12.93, 13.44, 15.01, 16.52, 16.08, 13.23, 11.36, 11.02, 11.14, 11.18, 11.18, 9.39, 7.15, 8.05, 7.6, 7.6, 8.24, 7.81, 6.6, 6.8, 8.24, 8.24, 10.28, 10.28, 10.63, 10.91, 11.28, 11.28, 11.64, 11.64, 12.27, 12.27, 12.65, 12.65, 12.65, 12.89, 12.16, 12.16, 12.76, 12.76, 12.76, 13.14, 13.35, 13.23, 13.61, 13.8, 13.42, 12.85, 12.54, 12.17, 12.17, 12.74, 13.2, 13.2, 12.54, 12.27, 12.27, 12.27, 12.27, 12.45, 12.7, 12.03, 11.2, 10.11, 8.72, 10.78, 9.18, 9.67, 10.01, 10.44, 10.24, 10.24, 10.24, 10.29, 9.86, 9.39, 8.48, 7.26, 6.51, 5.7, 4.43, 4.57, 3.93, 3.93, 6.8, 6.4, 6.8, 6.32, -0.0, 8.05, -8.49, -5.69, -3.6, 8.05, 7.27, 11.87, 12.87, 12.52, 11.4, 12.2, 15.45, 16.3, 15.95, 12.43, 11.14, 10.23, 9.76, 9.83, 9.83, 7.15, 8.05, 7.6, 7.56, 7.1, 7.08, 9.03, 8.67, 6.4, -0.0, 8.05, 10.28, 10.28, 10.63, 10.91, 11.28, 11.28, 11.64, 11.64, 12.27, 12.27, 12.65, 12.65, 12.65, 12.89, 12.89, 12.16, 12.39, 12.76, 12.76, 13.14, 13.35, 13.35, 13.23, 13.8, 13.42, 12.85, 12.47, 12.47, 12.47, 12.65, 13.03, 12.65, 12.65, 12.37, 12.27, 12.27, 12.16, 12.16, 11.88, 11.36, 10.68, 9.71, 8.0, 10.28, 8.86, 10.22, 10.77, 10.6, 10.33, 10.24, 10.46, 10.46, 9.7, 9.21, 8.22, 7.09, 6.47, 5.7, 4.43, 4.66, 4.22, 3.93, 6.8, 6.0, 7.15, 8.49, 8.49, 7.6, 0.0, -3.6, -6.8, -8.49, 6.64, 10.96, 14.11, 13.31, 11.57, 10.99, 13.99, 15.46, 13.83, 11.98, 11.15, 10.25, 9.35, 9.34, 9.35, 9.39, 10.66, 10.23, 8.44, 7.1, 6.64, 9.39, -0.0, -1.58, -0.0, -0.0, 10.28, 10.28, 10.28, 10.63, 11.28, 11.28, 11.64, 11.64, 12.0, 12.27, 12.65, 12.65, 12.65, 12.89, 12.89, 12.16, 12.39, 12.39, 12.76, 12.76, 13.35, 13.35, 13.54, 13.42, 13.42, 13.03, 12.47, 12.47, 12.09, 12.09, 12.65, 12.65, 12.65, 12.37, 11.72, 12.27, 12.16, 11.62, 10.96, 10.55, 10.4, 9.2, 8.4, 7.6, 10.28, 10.81, 12.3, 11.2, 10.16, 10.13, 10.4, 10.24, 9.51, 9.01, 8.22, 7.01, 6.47, 5.33, 4.92, 4.87, 4.66, 4.22, 4.8, 7.6, 7.6, 8.05, 7.6, 0.0, 0.0, -3.6, -7.2, -7.2, 6.64, 10.08, 12.71, 13.52, 12.72, 11.18, 10.8, 11.64, 11.09, 9.4, 10.05, 9.74, 9.8, 10.24, 10.68, 11.57, 11.62, 11.57, 10.2, 8.05, 7.6, 2.97, -2.83, -0.0, 0.89, -0.0, 10.28, 10.28, 10.28, 10.63, 10.91, 11.28, 11.28, 11.64, 11.64, 12.27, 12.27, 12.27, 12.65, 12.89, 12.51, 12.51, 12.39, 12.39, 12.39, 12.76, 12.97, 12.97, 13.15, 13.54, 13.42, 13.42, 12.47, 12.09, 12.09, 12.09, 12.53, 12.93, 12.65, 12.37, 11.99, 11.72, 12.16, 11.62, 10.58, 10.16, 9.88, 8.96, 8.54, 8.11, 8.38, 11.04, 12.39, 11.75, 9.76, 9.97, 10.26, 10.0, 9.42, 9.01, 7.81, 6.6, 6.23, 5.7, 5.36, 4.92, 4.85, 4.57, 6.79, 7.15, 7.6, 7.6, 7.6, 6.01, 0.0, -5.69, -5.69, 0.0, 0.0, 4.96, 10.28, 11.44, 13.11, 13.23, 10.24, 8.3, 5.69, 6.98, 9.75, 11.0, 11.57, 11.57, 11.55, 11.62, 11.62, 11.62, 10.73, 9.39, 5.69, -0.0, -0.0, 1.32, 3.45, 3.45, 9.92, 9.92, 10.28, 10.28, 10.91, 10.91, 11.28, 11.64, 11.64, 11.9, 12.27, 12.27, 12.27, 12.51, 12.51, 12.51, 12.16, 12.39, 12.39, 12.39, 12.76, 12.97, 12.97, 13.15, 13.32, 13.32, 12.77, 12.09, 12.09, 11.72, 11.99, 12.14, 12.27, 11.99, 11.81, 11.62, 11.62, 11.24, 10.58, 10.3, 9.63, 9.35, 8.93, 9.05, 9.4, 10.55, 11.6, 10.4, 8.68, 8.38, 8.93, 9.07, 9.01, 8.51, 7.81, 7.01, 6.42, 5.99, 5.7, 5.36, 5.36, 4.92, 4.92, 7.6, 7.6, 7.6, 8.05, 8.05, 0.0, 0.0, 0.0, 0.0, 0.0, 2.06, 5.21, 9.55, 11.59, 14.5, 13.57, 11.21, 10.96, 11.62, 11.95, 12.31, 11.99, 11.78, 11.11, 11.12, 11.12, 11.18, 11.18, 9.33, 4.83, 1.62, 5.1, 7.28, 7.28, 7.28, 9.92, 9.92, 10.28, 10.28, 10.63, 10.91, 11.28, 11.28, 11.28, 11.9, 11.9, 12.27, 12.27, 12.51, 12.51, 12.51, 12.51, 12.39, 12.39, 12.39, 12.76, 12.97, 12.97, 13.15, 13.15, 13.32, 12.93, 12.38, 11.99, 11.99, 11.61, 11.61, 11.61, 11.72, 11.81, 11.07, 11.07, 10.96, 10.41, 10.3, 10.02, 9.35, 8.93, 9.05, 9.47, 10.11, 10.49, 9.7, 8.84, 8.34, 8.12, 8.0, 8.51, 8.51, 7.81, 7.01, 6.72, 6.42, 5.99, 5.78, 5.36, 5.36, 4.92, 7.6, 7.6, 7.6, 8.05, 8.05, 7.15, 7.6, 0.0, 0.0, 0.0, 1.54, 2.97, 5.46, 9.8, 13.41, 14.79, 13.59, 12.65, 12.64, 14.21, 13.83, 12.79, 11.45, 10.46, 10.18, 10.47, 11.11, 11.18, 9.33, 7.51, 8.67, 8.94, 8.94, 8.94, 8.94, 9.92, 9.92, 10.28, 10.28, 10.63, 10.91, 11.28, 11.28, 11.64, 11.64, 11.9, 12.27, 12.27, 12.51, 12.51, 12.51, 12.51, 12.72, 12.39, 12.39, 12.76, 12.97, 12.97, 13.15, 13.15, 13.32, 12.93, 12.38, 11.99, 11.61, 11.61, 11.61, 11.61, 11.34, 11.34, 11.07, 10.7, 10.41, 9.86, 9.76, 9.48, 9.2, 8.93, 9.05, 9.32, 9.92, 10.6, 10.72, 9.93, 9.07, 8.84, 8.22, 8.0, 8.0, 7.31, 6.92, 6.51, 6.3, 5.99, 6.11, 5.77, 5.36, 5.36, 5.36, 8.05, 7.63, 7.2, 6.4, 3.4, 7.6, 6.32, 3.8, 1.75, 2.97, 3.45, 4.66, 7.9, 11.44, 13.29, 13.52, 13.89, 15.84, 17.19, 16.25, 13.65, 12.52, 10.88, 9.7, 9.32, 10.32, 11.46, 6.26, 7.37, 7.07, 7.6, 8.24, 8.24, 8.24, 9.92, 9.92, 10.28, 10.28, 10.28, 10.63, 10.91, 11.28, 11.64, 11.64, 11.9, 11.9, 12.27, 12.27, 12.51, 12.51, 12.51, 12.51, 12.72, 12.72, 12.39, 12.76, 12.97, 12.97, 13.15, 13.15, 12.93, 12.38, 11.99, 11.99, 11.61, 11.22, 11.06, 11.22, 11.22, 10.96, 10.7, 10.41, 9.5, 9.21, 8.93, 9.58, 9.32, 9.6, 9.72, 9.92, 10.33, 10.54, 10.46, 9.63, 9.13, 8.72, 8.22, 7.81, 7.2, 6.28, 6.4, 6.4, 6.23, 5.94, 5.64, 5.81, 5.36, 5.36, 5.81, 8.49, 8.05, 7.15, 7.6, 8.05, 4.46, 3.15, 3.32, 4.2, 4.83, 5.63, 8.82, 10.84, 12.07, 10.99, 11.69, 15.5, 18.04, 16.4, 14.68, 13.65, 12.52, 10.4, 7.9, 8.22, 8.05, 4.43, 2.8, 0.0, 0.0, 0.0, 0.0, 0.0, 9.92, 9.92, 10.28, 10.28, 10.63, 10.63, 10.91, 11.28, 11.28, 11.64, 11.9, 11.9, 12.27, 12.27, 12.51, 12.51, 12.51, 12.51, 12.72, 12.72, 12.72, 12.76, 12.97, 12.97, 13.15, 13.15, 12.77, 12.38, 11.99, 11.99, 11.61, 11.22, 11.06, 10.68, 10.68, 10.68, 10.41, 10.41, 9.86, 9.21, 8.93, 9.2, 9.32, 9.47, 9.6, 9.71, 10.33, 9.83, 10.24, 10.46, 9.63, 9.21, 8.3, 7.81, 6.28, 6.13, 6.25, 6.25, 5.86, 6.0, 6.07, 5.75, 5.36, 5.36, 5.36, 8.49, 7.6, 8.05, 7.6, 5.69, 3.8, 3.8, 3.15, 3.32, 5.63, 6.95, 9.55, 11.06, 11.53, 9.46, 9.77, 13.43, 17.5, 16.65, 15.14, 14.14, 12.96, 11.62, 0.0, 2.02, 2.99, 1.14, -1.41, -5.21, -6.0, 0.0, 0.0, 0.0, 9.92, 9.92, 10.28, 10.28, 10.28, 10.63, 10.98, 11.28, 11.28, 11.28, 11.64, 11.9, 11.9, 12.27, 12.51, 12.51, 12.51, 12.51, 12.51, 12.33, 12.33, 12.72, 12.97, 12.97, 13.15, 13.15, 12.77, 12.38, 11.99, 11.99, 11.61, 11.61, 11.06, 10.68, 10.68, 10.55, 10.13, 9.76, 9.5, 9.21, 8.93, 9.2, 9.2, 9.47, 9.6, 9.71, 9.92, 9.83, 9.83, 9.83, 9.83, 9.42, 8.79, 8.22, 6.67, 6.4, 5.86, 5.69, 6.0, 5.6, 6.02, 5.73, 5.29, 4.92, 4.92, 8.05, 7.6, 7.6, 8.05, 7.2, 6.32, 2.06, 2.17, 2.28, 5.21, 6.95, 8.8, 10.28, 10.18, 8.59, 9.86, 12.33, 14.11, 14.91, 15.25, 13.99, 11.37, 10.08, -8.58, -1.84, 0.0, -1.99, -3.93, -5.6, -5.58, 0.0, 0.0, 0.0, 9.92, 9.92, 10.28, 10.28, 10.28, 10.63, 10.98, 11.28, 11.28, 11.64, 11.64, 11.9, 12.27, 12.27, 12.27, 12.51, 12.51, 12.51, 12.51, 12.51, 12.72, 12.72, 12.76, 12.97, 12.97, 12.77, 12.77, 12.38, 11.99, 11.61, 11.61, 11.61, 11.06, 10.68, 10.68, 10.4, 10.24, 9.86, 9.58, 9.21, 8.65, 8.55, 8.93, 9.2, 9.35, 9.71, 9.71, 9.83, 9.83, 9.83, 9.42, 9.01, 9.01, 8.51, 7.2, 6.67, 6.25, 5.69, 5.43, 5.75, 5.94, 5.73, 5.26, 4.82, 4.77, 6.0, 6.0, 7.15, 7.6, 8.49, 8.94, 7.81, 0.0, 2.28, 4.2, 5.21, 7.81, 9.83, 9.2, 9.2, 9.86, 10.16, 10.37, 12.22, 14.36, 14.42, 8.82, -7.6, -7.6, -5.64, -4.65, -4.98, -4.22, -5.2, -5.21, -3.0, -3.0, -3.0, 9.62, 9.62, 10.28, 10.28, 10.28, 10.63, 10.98, 10.98, 11.28, 11.64, 11.64, 11.9, 12.27, 12.27, 12.27, 12.51, 12.51, 12.51, 12.51, 12.51, 12.72, 12.72, 13.1, 12.97, 12.59, 12.77, 12.77, 12.38, 11.99, 11.99, 11.61, 11.61, 11.06, 10.68, 10.68, 10.4, 10.52, 9.97, 9.67, 9.01, 8.65, 8.65, 8.65, 8.93, 9.35, 9.35, 9.71, 10.0, 9.83, 9.83, 9.42, 9.01, 9.01, 8.0, 7.08, 6.67, 6.13, 6.25, 6.0, 5.75, 5.51, 5.51, 4.98, 4.98, 4.4, 4.43, 2.8, 3.0, 6.4, 7.63, 8.24, 8.67, 8.4, 2.39, 2.28, 2.28, 6.64, 9.39, 8.91, 9.13, 9.75, 8.55, 8.49, 10.81, 14.84, 13.31, 9.29, 2.6, -3.16, -3.79, -6.26, -6.0, -4.98, -4.8, -5.51, -4.43, -4.43, -4.43, 9.62, 9.62, 9.62, 10.28, 10.28, 10.28, 10.63, 10.98, 11.28, 11.64, 11.64, 12.0, 12.27, 12.27, 12.27, 12.51, 12.51, 12.51, 12.51, 12.51, 12.51, 12.72, 12.72, 12.59, 12.59, 12.59, 12.77, 12.38, 11.99, 11.99, 11.87, 11.87, 11.06, 11.33, 10.79, 10.24, 10.35, 9.78, 9.4, 9.4, 8.73, 8.44, 8.29, 8.93, 9.1, 9.35, 9.35, 9.6, 9.6, 9.6, 9.2, 8.8, 9.01, 8.0, 7.48, 7.2, 6.67, 6.13, 5.86, 6.0, 5.34, 5.51, 5.09, 4.98, 4.6, 3.79, 3.0, 0.0, 1.63, 3.2, 5.37, 8.24, 9.21, 8.8, 2.39, 2.28, 2.97, 8.94, 9.39, 8.91, 9.13, 8.43, 8.82, 11.4, 16.52, 14.75, 10.73, -0.0, -4.47, 4.92, 5.81, 7.6, -5.94, -4.77, -5.51, -5.06, -5.06, -5.06, 9.62, 9.62, 9.62, 9.96, 10.28, 10.28, 10.63, 10.98, 11.28, 11.64, 11.64, 12.0, 12.27, 12.27, 12.27, 12.27, 12.51, 12.51, 12.51, 12.51, 12.51, 12.72, 12.72, 12.72, 12.59, 12.59, 12.38, 12.38, 11.99, 11.87, 11.87, 11.47, 11.33, 11.33, 10.79, 10.24, 10.35, 9.78, 9.7, 9.7, 9.02, 9.02, 8.37, 8.37, 8.82, 8.82, 8.82, 9.6, 9.6, 9.6, 9.6, 9.2, 8.68, 8.4, 7.72, 7.2, 6.67, 6.52, 5.95, 5.86, 5.86, 5.34, 5.51, 5.2, 4.54, 4.11, 3.72, 1.52, 1.32, 1.4, 1.49, 2.99, 6.01, 6.32, 5.46, 2.28, 0.0, 8.94, 9.39, 9.39, 9.33, 8.8, 9.55, 14.75, 16.99, 15.65, 12.0, 9.39, -4.11, 0.0, 3.48, 5.06, -6.0, -5.09, -7.21, -3.8, -3.8, -3.8, 9.62, 9.62, 9.62, 9.62, 10.28, 10.28, 10.63, 10.63, 10.98, 11.28, 11.64, 11.64, 12.27, 12.27, 12.27, 12.27, 12.51, 12.51, 12.51, 12.89, 12.51, 12.72, 12.72, 12.72, 12.59, 12.21, 12.21, 12.21, 11.99, 11.87, 11.87, 11.47, 11.33, 10.94, 10.79, 10.24, 10.35, 9.78, 9.7, 9.52, 9.14, 9.14, 8.76, 8.65, 8.65, 8.27, 9.07, 9.07, 9.07, 9.72, 9.72, 9.07, 8.91, 8.8, 8.11, 7.72, 6.79, 6.41, 6.13, 5.58, 6.0, 5.75, 5.75, 5.21, 5.21, 4.43, 3.72, 3.22, 1.73, 1.4, 1.25, 2.33, 2.33, 2.99, 0.0, 0.0, 0.0, 0.0, 6.64, 9.39, 9.39, 9.33, 11.57, 14.21, 15.93, 14.55, 11.06, 0.0, -1.49, 0.0, 0.0, 0.0, -4.22, -5.37, -4.96, -2.83, -2.83, -2.83, 9.62, 9.62, 9.62, 9.62, 9.62, 10.28, 10.63, 10.98, 10.98, 11.28, 11.28, 11.64, 12.0, 12.27, 12.27, 12.27, 12.27, 12.51, 12.51, 12.89, 12.89, 12.51, 12.72, 12.72, 12.21, 12.21, 12.21, 11.82, 11.82, 11.72, 11.87, 11.47, 11.33, 10.94, 10.79, 10.24, 10.35, 9.78, 9.4, 9.7, 9.14, 8.76, 8.76, 8.76, 8.76, 8.65, 8.93, 8.93, 8.93, 9.2, 9.32, 9.32, 8.8, 8.8, 8.66, 8.11, 7.17, 6.79, 6.23, 6.13, 5.86, 6.0, 5.43, 5.43, 5.15, 5.15, 4.74, 3.72, 3.97, 3.2, 4.14, 3.15, 3.32, 0.0, 0.0, 0.0, 0.0, 0.0, 0.0, 0.0, 0.0, 9.39, 10.65, 12.89, 14.31, 12.82, 8.33, 0.0, -1.41, -1.23, -0.82, -1.32, -2.99, -3.32, -2.28, -6.01, -6.01, -6.01, 9.62, 9.62, 9.62, 9.62, 9.62, 9.92, 10.28, 10.63, 10.63, 10.91, 11.28, 11.64, 11.64, 12.27, 12.27, 12.27, 12.27, 12.51, 12.51, 12.89, 12.89, 12.89, 13.1, 12.39, 12.21, 12.21, 12.21, 11.82, 11.82, 11.44, 11.33, 11.33, 10.94, 10.94, 10.79, 10.24, 10.35, 9.78, 9.4, 9.4, 9.32, 8.76, 8.76, 8.76, 8.76, 8.76, 8.76, 8.93, 8.93, 9.2, 9.2, 9.2, 9.2, 8.66, 8.66, 8.11, 7.92, 6.87, 6.28, 5.86, 5.95, 6.07, 5.69, 5.46, 5.46, 5.15, 4.74, 4.29, 4.01, 5.37, 5.37, 5.69, 6.01, 0.0, 0.0, 0.0, 0.0, 0.0, 0.0, 0.0, 0.0, 7.44, 9.39, 11.57, 12.63, 12.81, 7.52, 0.0, -1.55, -1.47, -2.51, -2.33, -1.54, 0.0, 9.39, -2.28, -2.28, -2.28, 9.62, 9.62, 9.62, 9.62, 9.96, 9.96, 10.28, 10.28, 10.63, 10.91, 11.28, 11.64, 11.64, 12.27, 12.27, 12.27, 12.27, 12.27, 12.51, 12.51, 12.89, 12.89, 13.1, 12.39, 12.01, 12.21, 12.21, 11.82, 11.44, 11.44, 11.06, 10.68, 10.94, 10.94, 10.4, 10.24, 10.35, 9.78, 9.78, 9.4, 9.4, 9.32, 8.93, 8.76, 8.76, 8.76, 8.76, 8.76, 8.93, 8.93, 8.93, 9.2, 9.05, 8.93, 8.8, 8.8, 7.92, 7.23, 6.87, 6.28, 5.35, 5.38, 5.72, 5.43, 5.43, 5.49, 5.06, 5.06, 4.29, 5.06, 4.22, 4.22, 3.6, 0.0, 0.0, 2.69, 2.06, 0.0, 0.0, 0.0, 0.0, 4.0, 8.05, 10.2, 12.07, 12.96, 9.83, 1.55, -2.4, -2.99, -3.14, -2.97, 0.0, 2.97, -0.0, -0.0, -0.0, -0.0, 9.62, 9.62, 9.62, 9.62, 9.96, 9.96, 10.66, 10.63, 10.63, 10.63, 11.28, 11.28, 11.64, 12.0, 12.27, 12.27, 12.27, 12.27, 12.51, 12.89, 12.89, 12.89, 12.52, 12.39, 12.01, 12.21, 11.82, 11.82, 11.44, 11.06, 11.06, 10.68, 10.94, 10.4, 10.4, 10.24, 9.97, 9.78, 9.78, 9.4, 9.4, 9.02, 9.02, 8.93, 9.32, 8.93, 8.93, 8.76, 8.93, 8.93, 8.93, 8.66, 9.05, 8.49, 8.8, 8.8, 7.92, 7.59, 6.92, 6.31, 5.98, 5.35, 5.38, 5.43, 5.43, 5.43, 5.43, 5.43, 5.06, 3.2, 3.2, 1.73, 0.0, 0.0, 0.0, 1.67, 3.15, 3.15, 0.0, -1.4, 0.0, 1.84, 5.86, 9.04, 11.46, 12.93, 11.18, 7.94, 0.0, -1.4, -1.54, 0.0, 7.81, 2.97, 0.93, -0.0, -0.0, -0.0, 9.62, 9.62, 9.62, 9.62, 9.96, 9.96, 9.96, 10.63, 10.63, 10.63, 11.28, 11.28, 11.64, 11.64, 12.27, 11.9, 11.9, 12.27, 12.27, 12.51, 12.89, 12.89, 12.52, 12.76, 12.01, 11.63, 11.63, 11.63, 11.44, 11.33, 11.33, 10.94, 10.94, 10.4, 10.24, 10.35, 10.35, 9.78, 9.78, 9.4, 9.4, 9.02, 9.02, 9.02, 9.02, 9.32, 8.93, 8.93, 8.93, 8.93, 8.93, 8.38, 8.66, 8.49, 8.8, 8.24, 8.24, 7.59, 7.27, 6.62, 6.01, 5.69, 5.68, 5.38, 5.06, 5.06, 5.43, 5.77, 5.77, 5.06, 3.47, 1.84, 0.0, 0.0, 0.0, 1.58, 1.67, 1.67, 0.0, -3.32, -1.75, 0.0, 4.83, 8.54, 11.03, 12.85, 12.48, 10.69, 8.17, 7.28, 7.33, 9.64, 7.87, 2.39, 0.85, 0.85, 0.85, 0.85, 9.26, 9.26, 9.62, 9.62, 9.62, 9.96, 9.96, 10.28, 10.63, 10.63, 11.28, 11.28, 11.64, 11.64, 11.9, 11.9, 11.9, 11.9, 12.27, 12.51, 12.51, 12.89, 12.52, 12.16, 12.01, 11.63, 11.63, 11.26, 11.56, 11.17, 11.17, 10.94, 10.55, 10.4, 10.24, 10.35, 10.35, 9.78, 9.78, 9.78, 9.4, 9.4, 9.4, 9.02, 9.02, 9.02, 8.93, 8.76, 8.76, 8.93, 8.54, 8.38, 8.38, 8.49, 8.49, 8.24, 8.24, 7.54, 7.27, 6.62, 6.01, 6.01, 5.38, 5.05, 5.37, 5.0, 5.37, 5.37, 6.11, 5.37, 4.19, 2.4, 0.0, 3.4, 3.2, 2.4, 1.95, 0.0, 0.0, 0.0, -1.75, 0.0, 4.2, 7.56, 10.92, 12.41, 12.49, 11.62, 10.28, 9.83, 9.39, 9.39, 6.95, 1.33, 0.85, 0.81, 0.81, 0.81, 9.26, 9.26, 9.59, 9.96, 9.96, 9.96, 9.96, 10.28, 10.28, 10.63, 10.63, 11.28, 11.64, 11.64, 11.64, 11.9, 11.9, 11.9, 11.9, 12.27, 12.51, 12.51, 12.51, 12.16, 12.01, 11.63, 11.94, 11.56, 11.56, 11.17, 11.17, 10.79, 10.4, 10.4, 10.24, 9.97, 9.97, 9.78, 9.78, 9.4, 9.4, 9.4, 9.4, 9.02, 9.02, 9.02, 8.82, 8.76, 8.76, 8.93, 8.54, 8.38, 8.38, 8.18, 8.11, 7.92, 7.92, 7.54, 6.92, 6.62, 6.32, 5.71, 5.38, 5.38, 5.05, 5.05, 5.37, 5.69, 5.69, 4.87, 4.19, 2.99, 2.4, 5.37, 0.0, 0.0, 0.0, 0.0, 0.0, 0.0, 2.17, 1.47, 2.97, 6.01, 10.0, 11.51, 12.07, 11.59, 11.14, 9.8, 9.35, 9.46, 7.33, 2.83, -0.0, 0.99, 0.99, 0.99, 9.26, 9.26, 9.59, 9.96, 9.96, 9.96, 9.96, 10.28, 10.28, 10.63, 10.63, 11.28, 11.64, 11.64, 11.64, 11.9, 11.9, 11.9, 11.9, 12.27, 12.51, 12.51, 12.51, 12.16, 12.01, 11.63, 11.94, 11.56, 11.56, 11.17, 11.17, 10.79, 10.4, 10.4, 10.24, 9.97, 9.97, 9.78, 9.78, 9.4, 9.4, 9.4, 9.4, 9.02, 9.02, 9.02, 8.82, 8.76, 8.76, 8.93, 8.54, 8.38, 8.38, 8.18, 8.11, 7.92, 7.92, 7.54, 6.92, 6.62, 6.32, 5.71, 5.38, 5.38, 5.05, 5.05, 5.37, 5.69, 5.69, 4.87, 4.19, 2.99, 2.4, 5.37, 0.0, 0.0, 0.0, 0.0, 0.0, 0.0, 2.17, 3.32, 4.0, 6.01, 8.99, 10.84, 11.59, 11.62, 11.51, 10.89, 10.02, 8.82, 7.64, 5.86, 1.54, -0.0, -0.0, -0.0]}, {"header": {"dx": 0.06612293990616946, "dy": 0.0552356325346848, "nx": 98, "ny": 59, "la1": 35.046912555036876, "la2": 31.78801023549047, "lo1": -121.43107172385933, "lo2": -114.95102361305473, "refTime": "2026040904", "parameterCategory": 1, "parameterNumber": 3}, "data": [-8.72, -8.72, -8.72, -8.72, -8.72, -9.22, -9.22, -9.22, -9.6, -10.01, -8.87, -7.26, -6.94, -5.0, -2.49, 0.0, 0.0, 0.0, 0.0, 0.0, 0.0, 0.0, 0.0, 0.0, 0.0, -1.01, -0.78, 0.0, 0.0, 0.0, -1.63, -4.11, -4.8, -4.8, -3.79, -3.47, -3.2, -3.2, -3.4, -4.46, -7.6, -8.8, -9.3, -9.17, -9.31, -9.54, -9.88, -10.31, -9.79, -7.76, 5.8, 11.46, 10.0, 8.24, 8.73, 8.15, 7.9, 7.65, 6.45, 6.45, 5.64, 5.64, 4.54, 5.0, 4.58, 5.77, 5.77, 4.9, 3.97, 3.42, 3.11, 2.37, 2.44, 1.84, 2.02, 2.83, 2.6, 1.54, 0.86, 0.0, 0.0, 0.0, 0.0, -1.41, -1.52, -1.84, -1.32, -1.4, -1.4, -1.94, -2.35, -2.83, -2.42, 0.0, 11.2, 12.27, 9.96, 6.64, -8.46, -8.72, -8.72, -8.72, -8.72, -8.72, -9.49, -9.89, -9.6, -9.97, -8.97, -8.44, -5.77, -3.98, -2.82, -3.53, 0.0, 0.0, 0.0, -4.4, -7.27, -3.25, -2.28, 0.0, -0.95, -1.84, -1.84, 0.0, 0.0, 0.0, -1.63, -4.43, -5.81, -5.81, -2.8, -3.97, -3.6, -2.99, -3.15, -4.0, -5.9, -9.3, -9.96, -11.07, -12.15, -12.2, -12.84, -12.42, -10.49, 0.0, 11.03, 9.58, 7.9, 8.24, 8.73, 8.49, 7.9, 7.65, 6.45, 6.45, 5.2, 5.2, 4.54, 5.2, 5.77, 5.77, 5.77, 4.9, 4.12, 3.55, 2.99, 3.11, 2.28, 1.7, 1.92, 1.76, 1.69, 1.54, 0.86, 0.0, 0.0, 0.0, 0.0, -1.41, -1.52, -1.84, -1.32, -1.4, -1.4, -1.94, -2.35, -2.83, -2.42, 0.0, 11.2, 12.27, 9.96, 6.64, -8.46, -8.72, -8.72, -8.72, -8.72, -8.72, -8.99, -9.39, -9.82, -9.62, -8.85, -7.27, -7.44, -6.45, -3.98, -2.1, 0.0, 0.0, -5.0, -7.9, -9.83, -10.18, -9.3, -6.17, -3.32, -1.73, -1.1, 0.0, 0.0, 0.0, -1.84, -7.15, -6.4, -7.6, -4.74, -4.71, -2.99, -3.32, -4.2, -6.42, -8.22, -10.82, -12.76, -13.96, -15.27, -14.68, -13.73, -11.73, 0.0, 9.2, 8.03, 7.27, 7.59, 8.24, 8.73, 8.49, 7.9, 6.97, 6.45, 5.64, 5.2, 4.32, 4.54, 5.2, 6.45, 7.44, 6.4, 5.86, 4.99, 4.64, 4.06, 3.04, 1.5, 0.8, 0.0, 0.0, 0.0, 1.61, 0.0, 0.0, 0.0, 0.0, -1.84, -3.0, -2.6, -3.2, -1.58, -1.67, -2.46, -3.06, -4.13, -5.2, -3.19, 2.82, 11.4, 10.58, 8.91, 8.05, -8.46, -8.46, -8.72, -8.72, -8.72, -8.72, -8.99, -9.39, -9.97, -9.8, -9.02, -8.02, -8.53, -6.2, -5.0, -2.71, -2.82, -2.93, -8.53, -11.18, -11.18, -10.28, -10.6, -10.4, -7.59, -3.65, -1.18, 0.0, 0.0, 0.0, -4.71, -8.94, -8.0, -8.67, -8.48, -6.64, -5.9, -5.75, -7.56, -9.48, -12.46, -15.28, -15.5, -14.41, -12.85, -10.47, -6.17, 0.0, 6.42, 6.3, 5.46, 6.3, 7.9, 7.9, 8.73, 8.15, 7.9, 6.97, 5.64, 5.2, 4.32, 4.32, 3.68, 5.77, 7.44, 6.76, 5.64, 5.57, 5.2, 5.6, 5.15, 4.16, 2.56, 0.78, -0.85, -1.93, -2.39, -1.51, 0.0, -1.03, -1.4, -1.52, -2.66, -2.8, -4.46, -4.96, -1.75, -2.33, -3.32, -4.8, -6.31, -5.64, -3.53, 5.95, 9.21, 9.7, 9.03, 8.0, -8.46, -8.46, -8.72, -8.72, -8.72, -8.72, -8.99, -9.39, -9.97, -9.8, -9.02, -8.47, -8.93, -6.98, -5.52, -5.98, -4.32, -2.93, -6.7, -12.07, -12.52, -10.73, -10.73, -8.22, -7.59, -6.2, -4.4, -2.28, -2.28, -3.15, -6.32, -9.83, -11.18, -11.53, -11.06, -10.0, -10.0, -10.55, -12.11, -15.07, -15.8, -13.49, -10.75, -6.65, -3.56, 0.0, 2.82, 3.92, 3.77, 3.61, 5.7, 6.58, 7.9, 7.9, 8.73, 7.9, 7.27, 6.16, 5.64, 4.32, 3.06, 3.34, 5.0, 7.15, 7.27, 5.64, 4.72, 5.64, 5.98, 5.4, 5.15, 4.95, 4.42, 2.64, 0.0, -3.63, -5.21, -4.58, -3.01, -1.65, -2.49, -2.98, -2.49, -4.29, -6.32, -6.79, -4.6, -4.6, -6.09, -8.05, -6.94, -4.8, 0.0, 8.0, 9.39, 9.11, 8.22, 7.44, -8.46, -8.46, -8.46, -8.72, -8.72, -8.72, -8.99, -9.53, -9.92, -9.8, -9.53, -8.23, -7.9, -5.52, -6.71, -6.71, -5.2, -7.24, -8.53, -12.04, -12.52, -12.07, -13.41, -12.96, -8.53, -8.53, -9.3, -8.73, -7.59, -7.59, -6.64, -9.21, -9.83, -12.07, -13.23, -13.01, -12.18, -11.21, -13.39, -15.62, -13.8, -11.17, -6.44, 0.0, 0.0, 1.13, 1.09, 0.0, 1.28, 3.07, 5.75, 6.7, 7.59, 8.24, 8.59, 6.76, 6.76, 5.2, 4.72, 3.06, 3.06, 3.53, 5.54, 6.5, 5.0, 4.15, 4.54, 4.8, 5.0, 4.62, 3.44, 3.91, 4.71, 4.62, 4.19, 0.0, -5.2, -5.3, -3.15, -0.85, -3.22, -6.4, -4.47, -5.37, -6.9, -7.6, -6.68, -7.73, -8.31, -8.97, -7.9, -5.6, 8.4, 8.49, 9.39, 9.11, 7.76, 8.18, -7.93, -8.46, -8.46, -8.72, -8.72, -8.72, -9.11, -9.53, -9.62, -9.8, -9.08, -7.87, -6.7, -5.52, -6.21, -6.71, -7.24, -8.01, -9.5, -10.61, -12.3, -14.23, -14.75, -15.65, -14.61, -13.56, -14.23, -13.39, -11.92, -10.32, -10.41, -9.39, -9.83, -9.74, -11.21, -13.37, -13.57, -11.75, -10.52, -10.18, -12.27, -12.04, -11.5, -9.48, -7.82, -6.21, -3.96, -2.08, 0.0, 0.0, 2.28, 6.44, 8.73, 8.73, 8.22, 6.45, 5.77, 4.58, 3.68, 2.16, 2.28, 2.71, 4.4, 4.23, 3.77, 3.39, 3.39, 2.95, 2.95, 1.92, 1.52, 1.54, 2.13, 2.37, 2.34, 1.56, -1.15, -5.1, -3.49, -2.39, -4.56, -7.6, -7.96, -7.47, -8.73, -9.81, -9.66, -9.48, -9.36, -9.76, -10.35, 8.53, 8.05, 8.49, 8.9, 8.37, 7.76, 6.64, -7.69, -7.93, -8.46, -8.46, -8.72, -8.72, -9.11, -9.44, -10.12, -10.02, -9.3, -8.8, -8.82, -6.71, -6.94, -6.98, -7.54, -8.44, -9.17, -9.48, -4.98, -4.24, -9.48, -14.99, -14.81, -14.42, -14.84, -15.61, -14.75, -13.41, -12.07, -12.07, -12.52, -12.35, -10.17, -11.55, -12.1, -10.17, -9.46, -8.93, -11.26, -12.98, -14.94, -15.46, -13.39, -10.86, -7.72, -5.43, -2.52, 0.0, 0.0, 7.9, 9.08, 8.22, 8.22, 6.45, 5.77, 4.58, 3.68, 2.28, 2.28, 1.18, 1.52, 1.52, 3.39, 2.95, 2.33, 1.28, 0.0, 0.0, 0.0, 0.0, -0.74, -0.75, -0.76, 0.0, 0.76, 1.33, 0.0, -3.1, -4.95, -10.04, -8.63, -9.05, -10.04, -10.66, -9.56, -9.56, -9.64, -9.66, -6.71, 6.14, 7.6, 8.49, 8.29, 7.6, 7.28, 6.32, -7.69, -7.93, -7.93, -8.46, -8.72, -8.72, -9.11, -9.44, -10.12, -10.12, -9.81, -10.73, -11.92, -11.6, -10.41, -10.19, -9.84, -10.09, -10.3, -9.48, -4.24, 0.0, -1.53, -7.1, -10.99, -10.27, -9.46, -13.86, -15.43, -14.3, -13.86, -15.2, -15.2, -13.8, -11.96, -10.58, -10.46, -10.6, -8.72, -8.72, -11.26, -13.19, -13.56, -11.62, -11.28, -11.18, -11.71, -7.9, 0.0, 5.95, 9.67, 9.6, 9.97, 8.22, 8.22, 7.44, 5.77, 3.53, 3.34, 2.28, 1.11, 0.0, 0.0, 2.02, 3.82, 2.82, 2.33, 1.18, 0.0, 0.0, -0.93, -0.7, -1.53, -2.09, -2.12, -1.57, 0.0, 0.76, 0.0, 0.0, -1.18, -9.42, -8.6, -7.85, -8.55, -9.21, -9.21, -8.6, -7.94, -6.95, 0.0, 5.59, 6.71, 8.05, 8.24, 6.91, 6.87, 6.32, -7.69, -7.69, -7.93, -7.93, -8.72, -8.72, -9.11, -9.44, -10.12, -9.64, -10.41, -11.26, -10.52, -12.36, -12.74, -12.18, -12.6, -13.19, -13.7, -12.72, -12.14, -10.99, -9.02, -9.31, -11.64, -10.09, -8.06, -10.73, -14.64, -14.3, -14.69, -16.48, -15.65, -13.86, -12.07, -11.11, -8.15, -8.05, -8.34, -7.15, -7.59, -9.17, -3.53, 6.64, 8.49, 8.49, 7.6, 9.75, 10.6, 9.64, 9.83, 9.2, 8.38, 7.9, 7.44, 6.76, 5.2, 3.68, 2.28, 1.05, 0.0, 1.28, 2.02, 3.8, 5.63, 3.82, 2.71, 2.19, 0.0, -1.44, -2.16, -2.02, -2.81, -2.76, -2.12, -1.36, -2.28, -1.58, -1.44, -0.73, -0.77, -1.93, -10.3, -6.44, -6.9, -7.33, -7.61, -7.61, -7.61, -5.59, 0.0, 4.46, 6.71, 7.6, 7.6, 6.87, 6.87, 6.32, -7.69, -7.69, -7.93, -8.18, -8.72, -8.72, -8.99, -9.92, -10.12, -9.92, -10.28, -11.18, -11.09, -11.82, -12.79, -13.11, -14.16, -14.44, -14.72, -16.29, -16.76, -16.46, -15.66, -13.19, -12.95, -11.85, -9.63, -10.2, -12.9, -13.8, -12.75, -12.91, -12.07, -10.84, -11.09, -12.07, -10.79, -7.96, -6.64, 0.0, 6.4, 8.8, 9.2, 9.83, 9.39, 8.49, 8.49, 8.49, 8.24, 8.77, 9.39, 7.81, 6.95, 5.29, 5.95, 5.0, 3.34, 1.09, 0.0, 0.0, 0.0, 3.65, 4.46, 6.64, 8.43, 7.59, 5.54, 4.24, 0.0, -3.82, -5.18, -4.02, -4.31, -3.47, -2.72, -2.06, -2.81, -3.76, -4.01, -3.96, -2.23, 0.0, 0.0, -9.17, -6.32, -4.65, -5.59, -6.01, -6.58, -2.69, 0.72, 5.06, 6.58, 6.58, 6.9, 6.01, 6.01, 6.01, -7.69, -7.69, -7.93, -8.18, -8.18, -8.72, -8.99, -9.92, -10.12, -9.92, -10.24, -10.82, -11.45, -10.77, -9.8, -9.94, -10.23, -12.81, -14.63, -15.93, -15.44, -15.02, -14.72, -13.77, -12.25, -11.6, -11.2, -6.51, -7.21, -6.61, -8.38, -5.58, 4.74, 5.01, -4.8, -10.14, -10.18, -7.6, -0.0, 8.05, 7.6, 7.6, 0.0, 0.0, 0.0, 8.05, 8.49, 8.49, 8.49, 8.94, 0.0, 0.0, 0.0, 0.0, 1.54, 2.17, 1.02, 1.09, 0.0, 0.0, 2.06, 7.07, 8.72, 9.64, 10.14, 9.32, 8.22, 7.24, 2.71, -1.28, -3.82, -4.5, -4.08, -3.82, -3.82, -3.87, -3.87, -3.91, -4.5, -5.6, -2.81, 0.0, 2.45, -2.43, -3.98, -3.7, -4.34, -4.83, -4.0, -0.69, 1.36, 3.91, 6.4, 6.0, 5.06, 4.75, 4.75, 5.93, -7.69, -7.69, -7.93, -8.18, -8.18, -8.18, -8.99, -9.62, -9.62, -9.8, -9.8, -10.48, -10.78, -11.44, -11.06, -10.4, -9.37, -9.83, -10.37, -11.34, -11.24, -11.07, -11.61, -10.47, -7.02, -4.8, -3.51, -2.83, -2.83, -1.76, -0.95, 0.0, 1.98, 1.84, 1.52, 6.26, 3.0, 5.37, 6.8, 7.6, 5.37, -3.2, -8.4, -8.94, -7.6, -8.05, -8.05, -8.24, -8.49, -8.49, -7.6, -8.05, -7.89, -5.72, -4.96, -3.49, -1.58, 0.0, 0.0, 0.0, 9.39, 9.83, 9.39, 9.39, 9.83, 10.18, 10.09, 9.82, 7.9, 6.45, 4.23, 0.0, -2.17, -3.45, -3.88, -4.58, -4.17, -3.98, -4.4, -2.6, 0.0, 0.0, 0.0, 0.0, 0.0, 0.0, -2.33, -2.59, -1.62, 0.0, 2.06, 2.51, 4.56, 4.74, 4.02, 3.45, 4.47, 5.59, -7.69, -7.69, -7.69, -7.93, -8.18, -8.31, -8.72, -9.62, -9.62, -9.67, -9.7, -9.73, -10.78, -11.09, -11.38, -11.03, -10.23, -9.39, -9.97, -10.51, -10.12, -9.02, -9.3, -7.76, -3.52, -1.04, -0.84, 0.0, 0.0, 0.0, 0.0, -0.82, 0.0, -1.03, 0.0, 5.6, 5.94, 7.15, 7.15, 0.0, 0.0, -5.95, -10.08, -11.18, -9.33, -9.74, -8.05, -9.83, -10.73, -10.73, -9.83, -10.73, -13.01, -13.15, -11.72, -10.79, -8.4, -1.95, 0.0, 0.0, 6.95, 9.97, 10.28, 9.83, 9.39, 9.83, 9.83, 10.08, 9.2, 6.95, 8.07, 8.58, 0.0, -6.95, -5.46, -5.43, -2.95, 0.0, 0.0, 0.0, 0.0, 0.0, 0.0, 0.0, 1.77, 0.0, 0.0, 0.0, 0.0, 1.36, 2.11, 2.0, 2.26, 3.2, 4.02, 3.45, 4.19, 4.74, -7.69, -7.69, -7.69, -7.93, -7.93, -8.31, -8.72, -9.62, -9.62, -9.67, -9.7, -10.04, -10.07, -10.75, -11.38, -11.34, -10.94, -10.43, -9.94, -10.11, -9.49, -8.26, -8.16, -6.89, -4.85, -3.24, -2.39, -1.48, -1.44, -0.67, -1.2, -1.77, -2.19, -2.26, 0.0, 7.6, 8.05, 7.37, 7.6, 0.0, 0.0, -8.49, -10.73, -10.58, -8.85, -8.6, -8.85, -8.49, -8.94, -9.76, -10.28, -10.22, -9.33, -7.63, -7.01, -7.6, -7.6, -8.06, -5.69, 0.0, 4.96, 7.81, 8.48, 8.94, 9.39, 9.83, 9.83, 6.95, 4.4, 6.64, 7.47, 9.97, 5.2, -10.73, -7.27, 0.0, 4.6, 5.29, 4.6, 2.82, 1.62, 0.0, -1.33, -1.33, -3.25, 0.0, 0.0, 1.11, 1.68, 1.52, 2.39, 1.4, 1.01, 4.56, 5.06, 4.47, 4.19, 4.19, -7.69, -7.69, -7.69, -7.93, -7.93, -8.31, -8.72, -9.16, -10.12, -9.67, -9.6, -9.22, -9.66, -10.4, -11.06, -11.03, -11.34, -11.24, -10.71, -10.33, -10.05, -9.28, -8.39, -7.4, -6.52, -5.01, -3.51, -2.76, -2.02, -1.89, -1.89, -1.83, -2.24, -2.19, -1.73, 3.2, 7.37, 6.8, 6.7, 0.0, -3.2, -3.97, -3.6, -7.63, -8.05, -7.89, -8.24, -7.63, -8.05, -8.05, -8.49, -7.5, -7.89, -8.05, 0.0, -7.15, -7.45, -7.6, -8.0, 0.0, 8.94, 9.39, 8.49, 0.0, 0.0, 0.0, -7.6, -9.39, 8.8, 9.11, 7.21, 2.39, 3.96, 8.22, 5.0, 8.94, 9.16, 7.95, 6.45, 5.69, 5.45, 3.87, 1.26, 0.0, -1.58, -4.83, -2.82, 0.0, 0.0, 0.8, 0.78, 1.73, 3.91, 5.37, 5.24, 3.72, 3.91, 3.91, -7.69, -7.69, -7.93, -7.69, -7.69, -8.31, -8.72, -9.44, -9.67, -9.24, -9.6, -9.22, -9.58, -10.01, -10.7, -10.35, -10.35, -10.94, -11.24, -10.32, -9.54, -9.28, -8.39, -6.89, -5.09, -4.23, -3.28, -2.54, -2.45, -1.84, -1.78, -1.78, -2.4, -2.04, -1.96, 0.0, 3.97, 1.73, 0.0, 0.0, -5.06, -5.58, -6.01, -7.2, -9.39, -8.94, 0.0, 0.0, 0.0, 0.0, 0.0, 0.0, 0.0, 8.0, 8.0, 0.0, -2.83, 0.0, 4.2, 9.75, 9.75, 8.4, 6.01, 0.0, 0.0, -3.0, -7.6, -8.05, 0.0, 8.49, -0.0, -2.71, -0.0, 8.22, 8.22, 10.04, 9.88, 9.17, 7.93, 7.72, 7.59, 6.48, 4.74, 3.17, 1.67, -1.95, -6.01, -2.69, -1.05, 0.0, 0.69, 2.54, 4.75, 5.03, 4.96, 4.16, 3.47, 3.47, -7.69, -7.69, -7.93, -7.93, -7.69, -8.05, -8.72, -9.16, -9.97, -9.53, -9.6, -9.49, -9.12, -9.58, -10.01, -9.66, -10.35, -10.65, -10.94, -10.05, -8.39, -8.39, -7.93, -5.51, -3.79, -2.76, -2.61, -2.52, -2.42, -2.99, -3.06, -3.06, -2.99, -2.87, -3.47, -2.31, -3.45, -3.76, -4.02, -4.29, -6.08, -7.2, -7.81, -8.49, -8.94, 0.0, 8.94, 8.94, 8.94, 9.39, 9.39, 8.91, 8.91, 6.64, 6.32, 5.21, 5.21, 6.64, 7.87, 6.95, 5.46, 5.21, 4.0, 0.0, 0.0, 0.0, -4.43, -6.8, -9.33, -6.2, -8.53, -6.45, 0.0, 2.06, 4.65, 10.01, 9.96, 8.1, 7.19, 7.54, 6.71, 5.45, 4.0, 1.33, 0.0, -2.06, -7.15, -6.01, -4.37, -1.47, 1.16, 3.8, 3.77, 4.0, 4.0, 4.22, 3.9, 3.9, -7.69, -7.69, -7.69, -7.93, -7.69, -8.05, -8.72, -8.72, -9.97, -9.53, -9.6, -9.49, -9.39, -9.39, -9.58, -10.87, -10.09, -10.7, -10.25, -8.61, -7.29, -8.06, -7.93, -7.4, -6.8, -6.36, -4.74, -5.87, -6.03, -4.77, -4.83, -4.79, -4.79, -4.12, -4.6, -4.65, -5.72, -6.92, -7.35, -7.07, -6.4, -7.5, -8.05, -5.69, -0.0, -0.0, 8.94, 9.39, 9.39, 9.39, 9.39, 8.91, 8.91, 8.48, 8.0, 7.51, 6.64, 5.63, 5.9, 4.4, 3.11, 2.97, 0.0, 0.0, 0.0, 6.8, 0.0, -3.2, -5.36, -3.98, -1.84, 0.0, 1.83, 2.64, 2.2, 0.0, 0.0, 0.0, 1.13, 2.16, 1.09, 1.09, 0.0, -1.09, 0.0, -1.54, -3.82, -4.15, -7.59, -4.4, 1.75, 3.52, 2.69, 2.46, 3.8, 3.4, 3.4, 3.4, -8.05, -7.69, -7.69, -7.69, -7.69, -8.05, -8.31, -8.72, -9.53, -9.53, -9.6, -9.49, -9.39, -9.39, -9.87, -9.58, -9.71, -10.78, -11.63, -10.17, -9.87, -9.23, -9.88, -11.78, -11.7, -10.76, -9.92, -8.81, -8.77, -8.3, -7.6, -7.08, -6.58, -6.06, -5.9, -5.85, -6.5, -7.33, -6.67, -4.78, -5.77, -8.06, -8.05, -0.0, -0.0, 5.69, 8.49, 8.94, 9.39, 9.39, 9.39, 8.48, 8.94, 8.94, 7.89, 7.89, 7.68, 5.1, 2.17, 0.0, 0.0, 0.0, 0.0, 0.0, 7.6, 5.95, 5.95, 7.15, 3.6, 3.32, 3.25, 4.49, 4.55, 2.66, 0.0, -4.21, -9.48, -9.36, -4.48, -1.11, -1.02, 0.0, -0.81, -1.04, -1.26, 0.0, 0.0, 3.15, 0.0, 0.0, 0.0, 0.0, 1.09, 1.26, 1.47, 2.83, 2.54, 2.54, -8.05, -7.69, -7.69, -7.69, -7.69, -8.05, -8.05, -8.72, -9.53, -9.82, -9.11, -9.49, -9.39, -9.02, -9.5, -9.5, -9.3, -10.81, -10.45, -11.68, -12.01, -11.38, -11.7, -11.38, -12.33, -12.01, -11.08, -11.1, -10.74, -10.34, -9.64, -8.71, -8.27, -7.8, -6.9, -6.44, -7.06, -7.59, -6.97, -5.08, -3.51, -3.3, -1.62, 0.0, 0.0, 8.05, 8.49, 8.94, 8.94, 6.32, 8.49, 8.49, 8.05, 8.49, 8.24, 7.47, 7.07, 6.52, 5.46, 0.0, 0.0, 0.0, 0.0, 0.0, 6.32, 5.06, 5.06, 6.8, 8.05, 8.22, 9.67, 8.78, 5.36, 1.73, -1.73, -6.73, -11.94, -11.64, -10.12, -6.71, -3.25, -0.89, 0.0, 0.77, 1.11, 1.4, 3.32, 4.71, 3.45, 1.2, -1.47, -2.7, -1.14, 0.0, 0.0, 1.4, 1.32, 1.32, -8.05, -7.69, -7.69, -7.69, -7.69, -7.69, -8.05, -8.72, -9.53, -9.82, -9.39, -9.49, -9.12, -9.02, -9.02, -9.5, -9.58, -10.04, -11.15, -12.4, -12.33, -12.29, -12.26, -11.96, -12.32, -12.0, -11.35, -10.76, -10.47, -10.47, -10.08, -9.67, -8.97, -8.52, -7.6, -7.6, -7.45, -7.55, -7.6, -6.08, -4.0, -2.63, -2.01, -1.29, -0.71, 1.14, 3.8, 6.01, 6.01, 5.69, 7.6, 8.05, 8.05, 8.05, 8.05, 7.89, 7.81, 8.48, 8.05, 4.0, 3.6, 0.0, 0.0, 8.49, 6.7, 6.8, 6.08, 6.08, 7.06, 9.39, 10.08, 9.62, 7.44, 3.49, -6.79, -11.8, -14.79, -14.54, -12.4, -10.23, -7.27, -2.97, 0.0, 1.84, 1.84, 2.17, 2.83, 2.97, 0.99, 0.78, -1.11, -4.05, -1.45, 0.0, 0.0, 1.49, 1.25, 1.25, -8.05, -8.05, -8.05, -7.69, -7.69, -7.69, -8.31, -8.31, -8.99, -9.39, -9.39, -9.49, -9.39, -9.02, -9.02, -9.02, -8.76, -9.66, -10.37, -11.34, -11.33, -11.38, -11.05, -11.33, -11.7, -11.7, -11.32, -10.66, -9.99, -9.19, -9.45, -9.17, -8.77, -8.51, -8.08, -7.63, -7.2, -7.28, -7.33, -6.7, -5.08, -4.0, -2.83, -1.67, -0.56, 0.82, 1.95, 0.0, 0.0, 7.15, 7.6, 7.6, 7.6, 7.6, 7.6, 7.6, 7.15, 8.05, 7.67, 4.75, 3.6, 0.0, 0.0, 8.06, 7.47, 7.06, 6.51, 5.58, 6.44, 8.0, 8.8, 9.2, 3.36, 0.0, -5.81, -9.83, -13.88, -15.07, -14.75, -13.23, -9.49, -6.32, -3.52, -1.16, 0.0, 1.16, 1.33, 0.0, -1.14, -1.16, -2.24, -1.58, 0.0, 0.0, 0.0, 1.49, 1.18, 1.18, -8.05, -8.05, -8.05, -8.05, -7.69, -7.69, -8.05, -8.31, -8.57, -9.39, -9.39, -9.25, -9.39, -9.02, -9.02, -9.02, -9.02, -9.3, -10.3, -10.65, -10.25, -10.94, -11.03, -10.43, -10.75, -10.76, -11.04, -10.36, -9.96, -9.28, -8.37, -8.37, -8.11, -7.66, -7.66, -6.96, -6.52, -6.36, -6.27, -5.7, -4.83, -3.81, -2.86, -2.19, -0.56, 0.0, 0.0, 0.0, 0.0, 6.8, 8.05, 7.6, 7.6, 7.6, 7.15, 7.15, 6.58, 7.01, 8.33, 4.83, 2.12, 0.0, 0.0, 6.79, 6.23, 5.51, 8.05, 8.94, 8.67, 7.6, -0.0, -3.98, -1.64, 0.0, 3.68, 0.0, -8.94, -12.39, -13.07, -13.47, -12.04, -8.95, -6.45, -5.1, -4.0, -3.52, -2.58, -3.3, -3.3, -1.33, 0.0, 1.2, 2.33, 2.4, 1.25, 1.25, 1.01, 1.01, -8.05, -8.05, -8.05, -8.05, -7.69, -7.69, -8.05, -8.31, -8.57, -9.39, -8.99, -8.99, -9.39, -9.39, -9.02, -9.02, -9.02, -9.12, -9.58, -9.88, -9.97, -10.53, -10.87, -11.34, -10.74, -10.13, -10.39, -10.36, -9.96, -9.0, -8.56, -7.88, -7.45, -7.0, -7.0, -6.52, -5.85, -5.88, -5.8, -5.04, -4.45, -3.4, -2.89, -2.21, -0.56, 0.0, -0.69, 0.0, 1.23, 3.76, 5.2, 7.37, 6.79, 7.15, 7.6, 7.15, 7.15, 5.94, 7.6, 2.54, 1.58, 1.1, 3.0, 5.6, 5.51, 7.94, 8.77, 9.39, 8.94, 8.05, -6.01, -5.46, -1.38, 1.83, 4.38, 5.63, 4.98, -2.19, -8.0, -11.34, -12.63, -11.68, -10.0, -8.42, -5.69, -5.15, -4.94, -4.44, -4.6, 0.0, 5.59, 4.71, 4.14, 3.4, 1.96, 1.18, 1.18, 1.18, -8.05, -8.05, -8.05, -8.05, -8.05, -7.69, -7.69, -8.31, -8.57, -9.11, -8.99, -8.99, -8.86, -9.39, -9.02, -9.02, -9.02, -9.39, -9.87, -9.16, -9.28, -9.55, -10.87, -11.64, -10.99, -10.42, -9.84, -10.1, -10.36, -9.67, -9.0, -8.56, -7.88, -7.4, -6.52, -6.02, -5.64, -5.34, -5.08, -5.0, -4.42, -3.81, -3.37, -2.23, -1.18, 0.0, 0.0, 0.71, 1.45, 2.47, 4.11, 4.66, 6.51, 6.79, 7.21, 7.6, 7.15, 7.15, 0.0, 0.0, 0.0, 1.47, 1.84, 7.15, 6.51, 8.67, 9.21, 9.26, 8.49, 7.63, -2.54, -4.4, -0.98, 1.6, 4.87, 7.82, 8.16, 3.94, -5.03, -8.56, -12.39, -13.28, -11.99, -9.6, -6.44, -6.28, -5.44, -4.71, -3.32, 0.0, 3.32, 4.71, 3.51, 2.6, 2.26, 1.96, 1.96, 1.96, -8.05, -8.05, -8.05, -8.05, -8.05, -7.69, -7.69, -8.05, -8.31, -8.57, -8.99, -8.99, -8.86, -9.12, -9.02, -9.02, -9.02, -9.39, -9.5, -9.16, -8.84, -9.28, -10.3, -10.59, -10.99, -10.33, -10.13, -10.11, -10.1, -9.42, -9.42, -9.0, -8.56, -7.63, -7.16, -6.66, -6.66, -5.98, -5.64, -5.25, -5.14, -5.02, -4.0, -2.37, -0.63, 0.0, 1.16, 1.22, 1.18, 2.12, 3.38, 4.37, 4.4, 4.57, 6.71, 6.4, 5.37, 7.15, 6.71, 0.0, -3.8, 0.0, 0.0, 3.97, 8.94, 8.94, 9.39, 8.94, 8.49, 3.8, 0.0, -4.0, -3.87, 0.0, 3.53, 6.09, 6.36, 5.4, 0.0, -7.54, -10.58, -13.57, -13.28, -9.9, -7.47, -6.25, -6.11, -5.31, -3.8, 0.0, 0.0, 0.0, 2.31, 2.44, 2.18, 2.67, 1.96, 1.96, -8.05, -8.05, -8.05, -8.05, -8.05, -8.05, -7.69, -8.05, -8.31, -7.93, -8.72, -8.99, -8.61, -8.61, -8.76, -8.76, -9.02, -9.02, -9.5, -9.16, -8.84, -8.84, -9.61, -10.02, -10.3, -10.05, -10.13, -9.84, -10.11, -9.45, -9.45, -9.17, -8.77, -8.33, -7.63, -7.16, -6.93, -6.44, -5.98, -5.67, -5.28, -5.2, -3.97, -1.91, 0.0, 1.12, 1.63, 1.11, 1.14, 1.88, 3.64, 4.46, 4.66, 4.82, 4.92, 6.26, 7.15, 7.15, 6.71, -0.0, -6.4, -2.99, -1.32, 3.4, 8.94, 10.28, 8.94, 8.94, 0.0, 0.0, 0.0, -1.84, -4.2, -4.83, -1.62, 0.0, 0.0, 1.45, 1.75, -7.45, -8.01, -12.85, -14.11, -10.55, -8.97, -8.67, -6.8, -6.9, -6.01, -1.58, -1.32, 0.0, 0.8, 1.44, 2.12, 2.31, 2.4, 2.4, -8.05, -8.05, -8.05, -8.05, -8.05, -8.05, -8.05, -8.31, -8.31, -8.31, -8.72, -8.99, -8.86, -8.86, -9.02, -8.76, -8.76, -8.76, -8.76, -8.9, -8.84, -8.84, -9.28, -9.61, -10.02, -9.69, -9.48, -9.84, -9.73, -9.45, -9.45, -9.04, -8.77, -8.33, -8.33, -7.63, -7.16, -6.93, -6.48, -5.85, -5.92, -5.17, -3.97, -2.83, 0.0, 1.67, 1.14, 0.0, -0.55, 1.2, 3.22, 4.6, 4.92, 4.92, 4.92, 4.47, 6.71, 7.15, 5.6, -0.0, -6.4, -4.14, -2.82, 6.01, 9.39, 9.39, 9.26, 8.0, 0.0, -8.94, -2.83, -1.54, -2.28, -5.46, -8.79, -8.31, -6.86, -4.8, 0.0, -6.32, -6.64, -11.84, -13.79, -12.52, -8.67, -7.06, -6.2, -7.6, -6.44, -3.91, -1.32, 0.0, 0.0, 1.49, 2.0, 2.12, 2.31, 2.31, -8.05, -8.05, -8.05, -8.05, -8.05, -8.05, -8.05, -7.93, -7.93, -7.93, -7.93, -8.99, -8.61, -8.86, -8.74, -9.02, -8.76, -8.76, -8.76, -8.9, -8.84, -8.84, -8.84, -9.61, -9.61, -9.28, -9.12, -9.48, -9.47, -9.47, -8.79, -8.79, -8.79, -8.37, -8.11, -7.66, -7.63, -7.16, -6.48, -6.3, -5.88, -5.14, -4.4, -3.33, -0.79, 0.0, -1.6, -2.8, -2.21, 0.0, 2.2, 4.4, 4.92, 4.77, 4.66, 4.4, 4.0, 3.72, 5.6, -0.0, -4.74, -3.4, 0.0, 8.49, 8.24, 8.33, 8.49, 8.8, 4.56, 0.0, -6.7, -2.99, 0.0, -1.92, -7.36, -9.8, -8.53, -7.65, -5.0, -1.69, -7.87, -9.68, -12.42, -13.18, -11.75, -7.6, -7.6, -6.7, -4.02, -2.66, -1.84, 0.0, 0.0, 1.0, 1.67, 1.52, 1.52, 1.52, -7.79, -7.79, -8.05, -8.05, -8.05, -8.05, -8.05, -7.93, -7.93, -8.18, -8.18, -7.93, -8.61, -8.61, -8.5, -8.5, -9.02, -9.02, -9.02, -8.68, -8.84, -8.84, -8.84, -8.84, -9.61, -9.28, -8.72, -8.18, -8.16, -8.81, -8.79, -8.55, -8.14, -8.14, -7.7, -7.66, -7.63, -7.16, -6.96, -6.52, -5.88, -5.11, -4.6, -3.51, -2.4, -3.63, -5.48, -4.68, -1.7, 1.27, 1.27, 0.98, 2.48, 4.92, 4.77, 4.66, 5.09, 4.46, 4.46, 4.11, 0.0, 0.0, 6.01, 8.49, 8.49, 6.7, 5.37, 8.49, 3.6, 0.0, -2.8, -3.97, 0.0, 1.76, 0.0, -6.43, -8.57, -6.84, -5.92, -3.34, -3.53, -8.93, -10.75, -12.63, -11.77, -8.22, -3.47, -1.28, -0.94, 0.0, 0.0, 0.0, 0.0, 0.0, 0.89, 0.81, 0.81, 0.81, -7.79, -7.79, -7.79, -8.05, -8.05, -8.05, -8.05, -8.31, -7.93, -8.18, -8.18, -8.18, -8.72, -8.86, -8.5, -8.5, -8.5, -9.28, -9.28, -8.93, -8.59, -9.09, -8.53, -8.84, -9.16, -9.61, -9.02, -8.08, -8.93, -7.76, -8.4, -8.79, -8.37, -8.14, -8.14, -7.66, -7.66, -7.42, -6.96, -7.0, -6.36, -5.57, -4.57, -3.75, -3.44, -4.63, -4.98, -2.77, 0.0, 1.6, 1.3, 0.61, 0.0, 0.96, 1.55, 4.47, 5.36, 5.36, 5.09, 5.51, 6.26, 6.8, 3.8, 0.0, 8.49, 7.2, 3.4, 0.0, 0.0, 0.0, 0.0, 0.0, 0.0, 0.0, 1.53, -1.59, -6.78, -7.56, -6.3, -4.25, -2.19, -1.84, -3.32, -4.32, -4.43, -2.81, -0.81, 0.0, 0.0, 0.0, 0.0, -2.06, -2.82, -1.18, 0.0, 0.0, 0.0, 0.0, -7.79, -7.79, -7.79, -8.05, -8.05, -8.05, -8.05, -8.31, -7.93, -8.18, -8.18, -8.18, -8.36, -8.36, -8.5, -8.5, -8.5, -8.5, -9.02, -8.93, -8.93, -8.59, -8.77, -8.84, -8.58, -8.9, -8.58, -8.08, -8.11, -9.25, -8.57, -8.81, -8.79, -8.79, -8.37, -8.37, -8.11, -7.66, -7.66, -7.0, -6.36, -5.8, -4.8, -4.2, -3.7, -3.45, -2.75, -1.16, 0.0, 0.69, 0.0, 0.0, 0.0, 0.0, 0.0, 0.0, 1.08, 4.66, 5.36, 4.92, 5.36, 6.4, 3.8, 3.4, 8.05, 8.05, 5.37, -0.0, -6.01, -1.75, 0.0, 6.64, 0.0, -5.29, -1.72, -0.83, -2.13, -5.95, -4.6, -1.44, 0.0, 0.76, 0.84, 0.0, 0.0, -0.65, -0.64, 0.0, 0.0, 0.0, 0.0, -2.17, -3.8, -2.66, -1.63, 0.0, 0.0, 0.0, -8.18, -8.18, -7.79, -7.79, -8.05, -8.05, -8.05, -8.31, -7.93, -8.18, -8.18, -8.43, -7.82, -8.36, -8.26, -8.5, -8.5, -8.5, -8.5, -9.28, -8.93, -8.83, -8.77, -8.77, -8.58, -8.9, -8.9, -8.33, -8.75, -8.46, -8.18, -8.83, -9.48, -8.81, -8.79, -8.79, -8.37, -8.11, -7.66, -7.03, -6.85, -5.83, -4.6, -4.4, -3.87, -2.93, -2.25, -1.22, -0.65, -0.65, -0.65, -0.62, -0.61, -1.09, -1.12, -0.59, 0.0, 0.0, 3.72, 3.35, 7.15, 6.8, 6.8, 5.69, 7.15, 7.6, -0.0, -0.0, -8.49, -4.0, 2.06, 5.46, 0.0, -5.45, -5.55, -2.39, 0.87, 3.85, 3.96, 1.08, 0.0, 0.0, 0.0, 0.0, 0.0, -0.58, -0.57, 0.0, 0.0, 0.0, 0.0, -1.84, -4.0, -4.75, -3.55, -1.44, -0.73, -0.73, -8.18, -8.18, -7.79, -7.79, -8.05, -8.05, -8.05, -8.31, -8.18, -8.18, -8.43, -8.43, -8.06, -8.36, -8.36, -8.26, -8.26, -8.26, -8.26, -8.5, -8.93, -8.59, -8.28, -8.28, -8.84, -8.58, -8.9, -8.33, -8.33, -8.28, -8.0, -8.43, -8.83, -8.83, -8.81, -8.81, -8.79, -8.37, -7.7, -7.48, -6.64, -5.62, -4.84, -4.05, -3.31, -2.39, -2.49, -1.89, -1.89, -2.02, -1.89, -1.89, -1.73, -1.67, -1.69, -1.73, -1.14, 0.0, 0.63, 2.68, 4.0, 7.21, 6.8, 5.37, 8.05, 0.0, -0.0, -5.37, -7.2, -8.49, 0.0, 0.0, 0.0, -1.7, -3.36, -1.62, 2.43, 5.79, 4.81, 2.43, 0.0, -2.23, -2.2, -2.25, -0.76, -0.6, 0.0, 0.0, 0.0, 0.0, 0.0, 0.0, -2.97, -3.6, -3.97, -3.77, -2.44, -2.44, -8.18, -8.18, -7.79, -7.79, -8.05, -8.05, -8.31, -8.31, -8.18, -8.18, -8.43, -8.43, -8.06, -7.82, -8.36, -8.26, -8.26, -8.26, -8.26, -8.5, -8.68, -8.59, -8.28, -8.28, -8.35, -8.58, -8.9, -8.33, -8.33, -8.28, -8.0, -8.0, -8.18, -8.18, -8.18, -8.56, -8.4, -8.14, -7.48, -7.06, -6.22, -5.2, -4.35, -3.46, -2.82, -2.65, -1.89, -1.89, -2.49, -2.49, -2.49, -2.35, -2.25, -2.28, -2.19, -2.23, -1.76, -0.53, 0.0, 2.3, 3.48, 3.93, 7.2, 5.06, 5.37, 6.01, 0.0, -0.0, -3.8, -6.01, -8.94, 0.0, 2.1, 1.77, 0.0, 0.0, 0.92, 3.36, 2.37, 0.72, -0.7, -2.2, -2.44, -1.84, -0.93, 0.0, 0.0, 0.0, 0.0, 0.0, 0.0, 0.0, -2.06, -3.35, -3.77, -3.4, -2.06, -2.06, -7.9, -7.9, -8.18, -7.79, -8.05, -8.05, -8.31, -8.31, -8.18, -8.18, -8.43, -8.43, -8.43, -8.06, -8.36, -8.36, -8.26, -8.26, -8.26, -8.5, -8.16, -8.35, -8.59, -8.28, -8.05, -8.12, -8.58, -8.33, -8.33, -8.28, -7.54, -7.54, -7.76, -8.18, -8.18, -8.18, -8.18, -7.92, -7.5, -6.88, -5.6, -4.76, -3.49, -2.94, -1.97, -1.81, -2.35, -2.46, -3.2, -3.2, -3.2, -3.03, -2.9, -2.93, -2.83, -2.23, -1.63, -1.14, 0.63, 1.83, 2.95, 2.95, 3.4, 3.2, 3.4, 6.32, 7.6, 0.0, -0.0, -5.69, -7.2, 0.0, 7.27, 3.96, 1.51, 0.0, -2.28, -2.81, -2.44, -2.83, -2.17, -1.46, -0.86, -1.02, -1.22, 0.0, 0.0, 0.0, 0.0, 0.0, -0.76, -0.89, -1.01, -2.58, -2.17, 3.2, 7.15, 0.0, -7.9, -7.9, -8.18, -7.79, -8.05, -8.05, -8.31, -8.31, -8.18, -8.18, -8.43, -8.43, -8.43, -8.06, -8.06, -8.36, -8.01, -8.26, -8.26, -8.5, -8.16, -8.16, -8.35, -8.28, -8.05, -8.12, -7.88, -7.88, -7.88, -7.59, -7.82, -7.59, -7.59, -8.04, -8.18, -8.18, -7.53, -7.53, -7.13, -6.25, -5.62, -4.57, -4.0, -3.08, -1.18, -1.14, -2.99, -3.53, -4.26, -4.48, -3.92, -3.92, -3.42, -3.45, -3.52, -2.73, -1.76, -1.14, 0.63, 1.55, 2.53, 2.95, 3.4, 3.0, 0.0, 0.0, 0.0, 0.0, -8.05, -7.2, -3.4, -0.0, 6.64, 2.19, 2.35, 1.66, -1.16, -5.99, -7.0, -5.89, -3.64, -1.5, -0.74, -0.79, -0.85, -0.93, -0.85, 0.0, -1.18, -1.02, -0.94, -0.89, -0.95, 0.0, 9.39, 7.89, 6.71, 7.15, -7.9, -7.9, -7.9, -8.18, -8.05, -8.05, -8.31, -8.31, -8.57, -8.18, -8.43, -8.43, -8.43, -8.06, -8.06, -8.36, -8.01, -8.01, -8.26, -8.26, -8.16, -8.16, -7.84, -8.05, -8.05, -7.82, -7.88, -7.88, -7.64, -7.64, -7.59, -7.59, -7.59, -8.04, -8.2, -8.18, -7.53, -7.55, -6.92, -5.86, -5.2, -4.6, -4.2, -3.8, -3.08, -2.84, -4.1, -5.6, -5.64, -5.7, -5.2, -4.48, -3.91, -3.94, -3.52, -2.92, -1.76, -0.59, 0.0, 0.7, 1.55, 2.53, 2.4, 0.0, 0.0, 0.0, 0.0, -7.6, -8.05, -7.2, -3.6, -3.6, -6.64, -2.02, 2.54, 5.91, 4.24, 0.0, -5.4, -6.65, -4.75, -2.89, -2.15, -1.39, -0.82, -0.93, -0.97, -1.16, 0.0, -1.16, -1.28, 0.0, 0.0, 8.91, 8.48, 8.05, 6.2, 6.71, -7.9, -7.9, -7.9, -8.18, -7.79, -8.05, -8.05, -8.31, -8.31, -8.18, -8.18, -8.18, -8.43, -8.06, -7.82, -7.82, -8.01, -8.01, -8.01, -8.26, -7.93, -7.93, -7.62, -7.84, -8.05, -8.05, -7.88, -7.64, -7.64, -7.64, -6.89, -7.11, -7.59, -8.04, -7.8, -8.2, -7.53, -7.55, -6.68, -5.64, -5.23, -5.04, -4.88, -4.73, -5.15, -5.89, -6.2, -6.46, -6.31, -5.98, -5.47, -5.0, -4.12, -3.94, -3.35, -2.75, -2.49, -1.14, 0.0, 0.0, 0.81, 1.83, 2.26, 0.0, 0.0, 0.0, 0.0, -6.01, -7.6, -5.69, -5.69, -8.05, -8.94, -7.44, 0.0, 5.08, 5.73, 4.13, 0.93, -3.32, -5.69, -5.59, -3.25, -2.0, -1.05, -1.16, -1.28, 0.0, 0.0, 0.0, 0.0, 0.0, 5.69, 9.83, 9.39, 7.94, 5.75, 5.75, -7.63, -7.63, -7.9, -7.9, -7.79, -7.79, -8.05, -8.31, -8.31, -7.93, -8.18, -8.18, -8.18, -7.82, -7.82, -7.82, -8.36, -8.01, -8.01, -8.01, -8.26, -7.93, -7.93, -7.62, -7.32, -7.32, -7.39, -7.64, -7.64, -7.4, -6.94, -6.68, -7.36, -7.8, -8.08, -7.55, -7.55, -7.31, -6.68, -6.29, -5.67, -5.26, -5.1, -4.87, -6.04, -5.86, -5.8, -5.2, -4.63, -5.15, -5.1, -4.84, -3.94, -3.97, -3.35, -2.92, -1.93, -1.8, -1.14, 0.0, 0.0, 0.0, 0.0, 0.0, 0.0, 0.0, 0.0, 0.0, -7.15, -8.05, -8.49, -8.49, -9.39, -8.24, -7.81, -3.82, 0.89, 2.72, 4.52, 4.48, 2.19, 0.0, -1.71, -2.24, -3.6, -2.62, -1.23, -1.11, -1.11, 0.0, 0.0, 3.11, 8.05, 9.7, 6.79, 4.37, 4.37, 4.37, -7.63, -7.63, -7.9, -7.9, -8.18, -7.79, -8.05, -8.05, -8.05, -7.93, -7.93, -8.18, -8.18, -7.82, -7.82, -7.82, -7.82, -8.01, -8.01, -8.01, -8.26, -7.93, -7.93, -7.62, -7.62, -7.32, -7.11, -7.17, -6.94, -6.94, -6.72, -6.72, -6.72, -7.4, -8.08, -7.57, -7.57, -6.92, -6.94, -6.29, -5.89, -5.26, -5.1, -4.87, -5.05, -4.76, -3.86, -3.42, -3.16, -3.21, -3.75, -4.0, -3.97, -3.97, -3.35, -2.92, -2.44, -1.93, -1.8, -0.64, 0.0, 0.0, 0.0, 0.0, 0.0, 0.0, 0.0, 0.0, 0.0, 0.0, -8.05, -8.49, -8.94, -9.26, -8.91, -7.64, -4.36, 0.0, 3.48, 6.8, 7.59, 6.69, 3.95, 0.86, -2.13, -3.82, -3.92, -3.39, -2.33, -1.23, 0.0, 3.11, 5.63, 2.17, 0.0, 0.0, 0.0, 0.0, -7.63, -7.63, -7.9, -7.9, -8.18, -7.79, -8.05, -8.05, -8.31, -8.31, -7.93, -8.18, -8.18, -7.82, -7.82, -7.82, -7.82, -7.48, -8.01, -8.01, -8.26, -7.93, -7.93, -7.62, -7.62, -7.32, -7.11, -7.17, -6.94, -6.72, -6.72, -6.72, -6.72, -7.16, -7.16, -7.57, -7.32, -6.94, -6.96, -6.31, -5.92, -5.52, -5.1, -4.87, -4.35, -4.08, -3.53, -3.15, -2.65, -2.42, -3.16, -3.52, -4.0, -4.0, -3.37, -3.14, -2.96, -2.29, -1.8, -1.36, -0.72, 0.0, 0.0, 0.0, 0.0, 2.54, 3.6, 3.2, 6.8, 0.0, -6.32, -7.6, -8.77, -8.91, -9.21, -8.15, -6.58, -2.08, 1.77, 5.91, 8.99, 10.08, 8.6, 4.95, 2.41, 0.0, -4.08, -5.54, -5.32, -2.95, -1.91, 0.0, -1.84, -4.71, -3.8, -2.06, -2.06, -2.06, -7.63, -7.63, -7.9, -7.9, -7.9, -8.18, -7.79, -8.05, -8.31, -8.31, -7.93, -7.93, -8.18, -8.18, -7.82, -7.82, -7.82, -7.82, -7.48, -7.48, -8.01, -8.26, -7.93, -7.93, -7.62, -7.62, -7.11, -7.17, -6.94, -6.94, -6.72, -6.5, -6.76, -6.5, -6.5, -6.92, -7.32, -6.94, -6.7, -6.33, -5.95, -5.75, -5.32, -4.8, -4.54, -4.08, -4.26, -3.72, -3.92, -3.61, -3.65, -3.49, -3.52, -3.35, -3.6, -3.42, -3.2, -3.2, -2.49, -1.98, -1.41, 0.0, 0.0, 0.0, 0.0, 0.0, 0.0, 0.0, 0.0, 0.0, -6.7, -7.89, -8.3, -8.4, -8.05, -7.51, -5.29, -2.71, 0.0, 5.99, 8.99, 9.79, 7.84, 7.13, 6.6, 4.27, 0.0, -5.2, -7.9, -8.22, -4.83, -4.43, -5.6, -7.15, -7.6, -7.6, -7.6, -7.6, -7.63, -7.63, -7.9, -7.9, -8.18, -8.18, -7.79, -8.05, -8.05, -8.31, -7.93, -7.93, -8.18, -8.18, -7.82, -7.82, -7.82, -7.82, -7.48, -7.48, -7.48, -8.26, -7.93, -7.93, -7.62, -7.62, -7.39, -7.17, -6.94, -6.94, -6.72, -6.5, -6.76, -6.53, -6.53, -6.53, -6.94, -6.94, -6.96, -6.33, -5.95, -5.52, -5.32, -5.05, -4.8, -4.57, -4.26, -4.3, -4.48, -3.92, -3.61, -3.45, -3.32, -3.35, -3.42, -3.68, -3.47, -3.47, -3.26, -3.0, -1.52, -0.82, 0.0, 0.0, 0.0, 0.0, 0.0, 0.0, -3.8, -5.69, -7.6, -7.6, -7.89, -8.3, -7.51, -6.95, -3.82, -1.58, 1.44, 6.76, 7.82, 7.11, 7.95, 8.68, 8.65, 6.7, 3.46, 0.0, -11.18, -10.08, -7.47, -5.7, -5.64, -3.47, -3.0, -6.71, -6.71, -6.71, -7.63, -7.63, -7.9, -7.9, -7.9, -8.18, -8.45, -8.05, -8.05, -8.05, -8.31, -7.93, -7.93, -8.18, -7.82, -7.82, -7.82, -7.82, -7.82, -7.25, -7.25, -7.48, -7.93, -7.93, -7.62, -7.62, -7.39, -7.17, -6.94, -6.94, -6.72, -6.72, -6.76, -6.53, -6.53, -5.86, -6.56, -6.31, -6.7, -6.33, -5.95, -5.52, -5.52, -5.05, -4.8, -4.57, -4.08, -4.3, -4.3, -4.3, -4.3, -4.12, -3.3, -3.52, -3.64, -3.2, -3.26, -3.55, -3.0, -2.8, -1.72, -0.96, -0.88, 0.0, 0.0, 0.0, 0.0, 0.0, 0.0, -3.6, -6.32, -8.24, -8.67, -9.11, -7.81, -6.95, -4.4, 0.0, 3.39, 7.15, 6.16, 5.28, 8.62, 10.65, 10.17, 7.0, 4.06, 2.02, -6.44, -9.21, -6.71, -4.98, -2.95, -2.8, -3.72, -7.15, -7.15, -7.15, -7.63, -7.63, -7.9, -7.9, -7.9, -8.18, -8.45, -8.05, -8.05, -8.31, -8.31, -7.93, -8.18, -8.18, -8.18, -7.82, -7.82, -7.82, -7.82, -7.82, -7.48, -7.48, -8.26, -7.93, -7.93, -7.39, -7.39, -7.17, -6.94, -6.72, -6.72, -6.72, -6.76, -6.53, -6.53, -6.12, -6.4, -6.16, -6.58, -6.33, -6.34, -5.7, -5.95, -5.52, -5.26, -4.57, -4.57, -4.3, -4.3, -4.3, -4.12, -3.94, -3.94, -3.97, -3.6, -3.64, -3.47, -3.55, -3.11, -2.47, -1.98, -0.96, -1.05, -0.96, -1.19, -3.0, -3.0, 0.0, 0.0, 0.0, 0.0, -5.21, -9.39, -9.11, -8.4, -7.81, -5.21, 0.0, 4.6, 5.52, 4.23, 5.64, 7.78, 9.77, 9.07, 6.07, 1.47, -0.0, -0.0, -1.41, -3.49, -2.99, -2.53, -2.6, -3.47, -6.0, -6.0, -6.0, -8.01, -8.01, -7.9, -7.9, -7.9, -8.18, -8.45, -8.45, -8.05, -8.31, -8.31, -7.93, -8.18, -8.18, -8.18, -7.82, -7.82, -7.82, -7.82, -7.82, -7.48, -7.48, -7.71, -7.93, -7.69, -7.39, -7.39, -7.17, -6.94, -6.94, -6.72, -6.72, -6.76, -6.53, -6.53, -6.12, -5.92, -5.98, -6.45, -6.61, -6.34, -6.34, -6.34, -5.95, -5.26, -5.26, -4.57, -5.0, -4.3, -4.3, -4.12, -3.94, -3.94, -4.0, -3.81, -3.64, -3.68, -3.47, -3.0, -2.47, -1.84, -1.84, -1.99, -1.99, -2.2, -4.43, -5.6, -6.0, -3.2, -2.54, -2.06, -2.17, -4.2, -9.54, -9.11, -9.11, -6.64, 0.0, 2.97, 3.65, 3.25, 5.7, 7.27, 6.31, 4.95, 1.66, 1.33, 5.2, 3.16, 3.79, -0.0, -3.0, -1.99, -2.4, -1.84, -4.43, -4.43, -4.43, -8.01, -8.01, -8.01, -7.9, -7.9, -7.9, -8.18, -8.45, -8.05, -8.31, -8.31, -8.57, -8.18, -8.18, -8.18, -7.82, -7.82, -7.82, -7.82, -7.82, -7.82, -7.48, -7.48, -7.69, -7.69, -7.69, -7.39, -7.17, -6.94, -6.94, -6.25, -6.25, -6.76, -6.3, -6.35, -6.4, -6.21, -6.29, -6.04, -6.04, -6.24, -6.63, -6.08, -5.95, -5.69, -5.26, -5.26, -4.8, -4.8, -4.8, -4.6, -4.4, -3.94, -4.0, -4.03, -3.6, -3.64, -3.68, -3.26, -3.0, -2.29, -1.84, -1.7, -1.99, -2.76, -3.79, -6.0, -6.26, -6.51, -6.4, -5.37, -2.06, -1.84, -4.4, -9.54, -9.11, -8.91, 0.0, 0.0, 2.97, 3.65, 5.06, 5.29, 2.28, 0.75, 0.0, 0.0, 8.05, -0.0, 0.0, 0.0, 0.0, -1.98, -1.19, -1.84, -5.06, -5.06, -5.06, -8.01, -8.01, -8.01, -8.3, -7.9, -7.9, -8.18, -8.45, -8.05, -8.31, -8.31, -8.57, -8.18, -8.18, -8.18, -8.18, -7.82, -7.82, -7.82, -7.82, -7.82, -7.48, -7.48, -7.48, -7.69, -7.69, -7.17, -7.17, -6.94, -6.25, -6.25, -6.04, -6.3, -6.3, -6.35, -6.4, -6.21, -6.29, -5.54, -5.54, -5.8, -5.8, -5.98, -5.98, -5.29, -5.29, -5.29, -4.8, -4.8, -4.8, -4.8, -4.6, -4.63, -4.2, -4.5, -3.6, -3.64, -3.91, -3.97, -3.26, -2.2, -2.29, -1.84, -2.6, -3.63, -4.11, -5.58, -6.07, -6.58, -7.01, -7.45, -7.47, -6.01, -6.32, -8.18, -9.11, -9.39, 0.0, 0.0, 0.0, 3.11, 4.4, 3.82, 0.0, 0.0, 0.0, 1.33, 0.0, -4.11, -4.47, -3.48, -5.06, -3.0, -1.7, -2.4, -7.6, -7.6, -7.6, -8.01, -8.01, -8.01, -8.01, -7.9, -7.9, -8.18, -8.18, -8.45, -8.05, -8.31, -8.31, -8.18, -8.18, -8.18, -8.18, -7.82, -7.82, -7.82, -8.06, -7.82, -7.48, -7.48, -7.48, -7.69, -7.46, -7.46, -7.46, -6.94, -6.25, -6.25, -6.04, -6.3, -6.08, -6.35, -6.4, -6.21, -6.29, -5.54, -5.86, -5.62, -5.62, -5.39, -5.56, -5.56, -5.32, -4.84, -4.84, -4.84, -4.54, -4.54, -4.84, -4.16, -4.4, -4.73, -4.5, -4.32, -4.08, -3.68, -3.72, -3.0, -2.47, -2.47, -3.47, -3.47, -4.43, -4.46, -4.84, -6.94, -7.01, -7.5, -8.17, -8.17, -7.47, -7.6, -8.94, -8.94, -8.94, -6.64, 0.0, 0.0, 3.11, 1.05, 1.67, 2.28, 2.43, 1.58, -8.05, -3.74, -4.02, -4.47, -7.15, -6.32, -5.37, -7.44, -8.48, -8.48, -8.48, -8.01, -8.01, -8.01, -8.01, -8.01, -7.9, -8.18, -8.45, -8.45, -8.05, -8.05, -8.31, -8.57, -8.18, -8.18, -8.18, -8.18, -7.82, -7.82, -8.06, -8.06, -7.82, -7.48, -7.48, -7.46, -7.46, -7.46, -7.23, -7.23, -6.51, -6.25, -6.04, -6.3, -6.08, -6.35, -6.4, -6.21, -6.29, -6.04, -5.54, -5.62, -5.39, -5.39, -5.39, -5.39, -5.56, -5.1, -5.1, -5.1, -4.6, -4.35, -4.35, -4.4, -4.4, -4.66, -4.73, -4.56, -4.32, -4.36, -3.68, -3.26, -3.0, -3.11, -3.11, -4.29, -4.29, -4.74, -4.46, -5.95, -6.4, -6.9, -7.89, -8.3, -8.94, -8.94, -8.49, -8.05, -8.94, -9.39, -9.39, -8.94, 0.0, 1.33, 3.68, 3.58, 3.94, 1.67, -5.36, -4.24, -4.3, -5.75, -7.94, -7.47, -8.3, -9.11, -6.01, -6.01, -6.01, -8.01, -8.01, -8.01, -8.01, -8.01, -7.63, -7.9, -8.18, -8.18, -7.79, -8.05, -8.31, -8.31, -8.18, -8.18, -8.18, -8.18, -7.82, -7.82, -8.06, -8.06, -8.06, -7.71, -8.01, -7.46, -7.46, -7.46, -7.23, -7.23, -6.99, -6.3, -6.3, -6.08, -6.08, -6.35, -6.4, -6.21, -6.29, -6.04, -6.04, -5.32, -5.39, -5.39, -5.39, -5.39, -5.39, -5.39, -5.1, -5.1, -4.6, -4.6, -4.6, -4.6, -4.66, -4.66, -4.73, -5.04, -5.0, -5.03, -4.1, -3.97, -3.79, -3.55, -3.9, -3.9, -4.29, -4.74, -5.15, -4.81, -5.37, -5.37, -5.69, -6.01, -8.94, -8.94, -8.94, -8.94, -8.94, -8.94, -8.94, -8.94, -4.96, 0.0, 1.05, 2.92, 1.97, 1.07, -5.36, -4.66, -5.16, -6.7, -8.17, -9.26, -9.39, 0.0, 9.11, 9.11, 9.11, -8.01, -8.01, -8.01, -8.01, -8.3, -8.3, -7.9, -7.9, -8.18, -7.79, -8.05, -8.31, -8.31, -8.18, -8.18, -8.18, -8.18, -8.18, -7.82, -7.82, -8.06, -8.06, -7.71, -8.01, -7.77, -7.46, -7.46, -7.23, -6.99, -6.99, -6.76, -6.53, -6.08, -6.08, -6.12, -6.4, -6.21, -6.29, -6.29, -6.04, -6.04, -5.32, -5.1, -5.39, -5.39, -5.39, -5.39, -5.39, -5.1, -5.1, -5.1, -4.6, -4.87, -4.12, -4.4, -4.4, -5.04, -5.26, -5.0, -5.03, -4.75, -4.71, -4.29, -4.65, -4.65, -4.58, -5.06, -5.06, -5.15, -5.06, -6.32, -6.32, -7.2, -8.05, -8.49, -8.06, -8.24, -8.94, -8.94, -8.94, -8.49, -8.0, -4.83, -1.28, 0.0, 0.0, 0.0, -4.66, -4.8, -6.99, -8.37, -8.91, -9.39, 8.91, 9.39, 9.39, 9.39, 9.39, -8.01, -8.01, -8.01, -8.01, -8.3, -8.3, -7.38, -8.18, -8.18, -8.18, -8.05, -8.05, -8.31, -8.57, -8.18, -8.18, -8.18, -8.18, -7.82, -8.06, -8.06, -8.06, -8.61, -8.01, -7.77, -7.46, -7.23, -7.23, -6.99, -6.76, -6.76, -6.53, -6.08, -6.12, -6.12, -6.4, -5.98, -6.29, -6.29, -6.04, -6.04, -5.8, -5.8, -5.1, -5.32, -5.1, -5.1, -5.39, -5.1, -5.1, -5.1, -4.66, -4.87, -4.96, -4.4, -4.4, -5.04, -5.52, -5.66, -5.68, -5.38, -4.75, -4.71, -4.65, -4.65, -4.65, -4.65, -4.65, -5.06, -6.4, -6.4, -6.94, -7.15, -7.6, -8.05, -8.33, -7.89, -7.89, -8.49, -8.38, -8.94, -9.21, -7.33, -3.87, -1.91, -0.92, 0.0, -1.32, -6.26, -8.38, -9.26, -9.83, 5.21, 8.91, 9.34, 9.39, 9.39, 9.39, -8.01, -8.01, -8.01, -8.01, -8.3, -8.3, -8.3, -8.18, -8.18, -8.18, -8.05, -8.05, -8.31, -8.31, -8.18, -7.93, -7.93, -8.18, -8.18, -7.82, -8.06, -8.06, -8.61, -8.26, -7.77, -7.53, -7.53, -7.53, -6.99, -6.3, -6.3, -6.08, -6.08, -6.12, -6.4, -6.21, -6.21, -6.29, -6.29, -6.04, -6.04, -5.8, -5.8, -5.8, -5.8, -5.32, -5.1, -5.1, -5.1, -5.1, -5.1, -5.15, -4.66, -4.96, -4.4, -4.5, -4.5, -5.52, -5.94, -6.01, -6.01, -5.69, -5.05, -4.71, -5.06, -5.06, -4.65, -4.95, -4.95, -5.06, -5.21, -7.37, -7.15, -7.15, -7.6, -7.89, -8.33, -8.33, -8.94, -8.3, -8.77, -9.39, -8.05, -4.88, -3.68, -1.71, -0.89, -0.89, -2.33, -4.37, -5.86, -1.93, 5.9, 9.54, 9.35, 9.35, 9.35, 9.35, -8.42, -8.42, -8.01, -8.01, -8.01, -8.3, -8.3, -7.9, -8.18, -8.18, -8.05, -8.05, -8.31, -8.31, -7.93, -7.93, -7.93, -7.93, -8.18, -7.82, -7.82, -8.06, -8.61, -8.36, -7.77, -7.53, -7.53, -7.29, -6.8, -6.57, -6.57, -6.08, -5.86, -6.12, -6.4, -6.21, -6.21, -6.29, -6.29, -6.29, -6.04, -6.04, -6.04, -5.8, -5.8, -5.8, -5.1, -5.39, -5.39, -5.1, -4.88, -5.15, -5.15, -4.96, -4.96, -4.5, -4.5, -4.8, -5.94, -6.01, -6.62, -6.01, -5.98, -5.68, -5.37, -5.72, -5.37, -5.37, -5.24, -5.37, -5.24, -7.21, -6.71, -6.8, -6.4, -7.21, -7.81, -8.49, -8.49, -8.94, -8.77, -9.39, -8.4, -6.3, -3.97, -1.65, -0.83, 0.0, 0.0, 0.0, 0.0, 0.0, 6.95, 9.29, 9.35, 8.9, 8.9, 8.9, -8.42, -8.42, -8.72, -8.3, -8.3, -8.3, -8.3, -7.9, -7.9, -8.18, -8.18, -8.05, -8.31, -8.31, -8.31, -7.93, -7.93, -7.93, -7.93, -8.18, -7.82, -7.82, -7.82, -8.36, -7.77, -7.53, -7.03, -6.8, -6.8, -6.57, -6.57, -6.35, -6.12, -6.12, -6.4, -5.98, -5.98, -6.29, -6.29, -6.04, -6.04, -6.04, -6.04, -5.8, -5.8, -5.8, -6.11, -5.39, -5.39, -5.1, -4.88, -5.15, -5.15, -5.46, -4.73, -5.04, -5.04, -4.8, -5.66, -6.01, -6.32, -6.28, -6.57, -5.98, -5.68, -5.68, -5.37, -5.69, -5.69, -5.84, -5.24, -4.98, -4.8, -5.37, -6.71, -7.6, -8.05, -8.49, -8.49, -8.49, -8.67, -8.82, -8.91, -7.21, -5.0, -1.64, 0.0, 0.83, 0.86, 0.82, 0.85, 2.7, 5.86, 8.48, 8.94, 8.89, 8.89, 8.89, -8.42, -8.42, -8.72, -8.3, -8.3, -8.3, -8.3, -7.9, -7.9, -8.18, -8.18, -8.05, -8.31, -8.31, -8.31, -7.93, -7.93, -7.93, -7.93, -8.18, -7.82, -7.82, -7.82, -8.36, -7.77, -7.53, -7.03, -6.8, -6.8, -6.57, -6.57, -6.35, -6.12, -6.12, -6.4, -5.98, -5.98, -6.29, -6.29, -6.04, -6.04, -6.04, -6.04, -5.8, -5.8, -5.8, -6.11, -5.39, -5.39, -5.1, -4.88, -5.15, -5.15, -5.46, -4.73, -5.04, -5.04, -4.8, -5.66, -6.01, -6.32, -6.28, -6.57, -5.98, -5.68, -5.68, -5.37, -5.69, -5.69, -5.84, -5.24, -4.98, -4.8, -5.37, -6.71, -7.6, -8.49, -8.49, -8.49, -8.49, -8.67, -8.3, -8.0, -7.21, -4.99, -2.71, -0.83, 0.0, 1.64, 2.51, 2.31, 3.21, 5.46, 7.33, 9.26, 9.39, 9.39, 9.39]}]